| time (UTC) | temp F | wind direction | speed MPH | gust MPH | rain 1hr in | rain 24hr in | rain mn in | humidity % | barometer mb |
| 20260905123703 | 67 | 350 | 2.0 | 6.0 | 0.00 | 0.05 | 0.00 | 100 | 1013.3 |
| 20260905123603 | 67 | 292 | 3.0 | 6.0 | 0.00 | 0.05 | 0.00 | 100 | 1013.2 |
| 20260905123403 | 67 | 289 | 2.0 | 6.0 | 0.00 | 0.05 | 0.00 | 100 | 1013.5 |
| 20260905123303 | 67 | 262 | 3.0 | 6.0 | 0.00 | 0.05 | 0.00 | 100 | 1013.2 |
| 20260905123217 | 67 | 287 | 4.0 | 6.0 | 0.00 | 0.05 | 0.00 | 100 | 1013.3 |
| 20260905123203 | 67 | 286 | 4.0 | 6.0 | 0.00 | 0.05 | 0.00 | 100 | 1013.3 |
| 20260905123103 | 67 | 291 | 3.0 | 5.0 | 0.00 | 0.05 | 0.00 | 100 | 1013.2 |
| 20260905122903 | 67 | 223 | 1.0 | 3.0 | 0.00 | 0.05 | 0.00 | 100 | 1013.4 |
| 20260905122803 | 67 | 221 | 1.0 | 3.0 | 0.00 | 0.05 | 0.00 | 100 | 1013.2 |
| 20260905122720 | 67 | 201 | 1.0 | 3.0 | 0.00 | 0.05 | 0.00 | 100 | 1013.4 |
| 20260905122703 | 67 | 172 | 1.0 | 3.0 | 0.00 | 0.05 | 0.00 | 100 | 1013.4 |
| 20260905122603 | 67 | 187 | 1.0 | 5.0 | 0.00 | 0.05 | 0.00 | 100 | 1013.5 |
| 20260905122403 | 67 | 245 | 1.0 | 5.0 | 0.00 | 0.05 | 0.00 | 100 | 1013.4 |
| 20260905122306 | 67 | 271 | 2.0 | 5.0 | 0.00 | 0.05 | 0.00 | 100 | 1013.4 |
| 20260905122203 | 67 | 314 | 2.0 | 5.0 | 0.00 | 0.05 | 0.00 | 100 | 1013.5 |
| 20260905122118 | 67 | 308 | 2.0 | 5.0 | 0.00 | 0.05 | 0.00 | 100 | 1013.6 |
| 20260905122103 | 67 | 301 | 3.0 | 5.0 | 0.00 | 0.05 | 0.00 | 100 | 1013.6 |
| 20260905122003 | 67 | 282 | 3.0 | 5.0 | 0.00 | 0.05 | 0.00 | 100 | 1013.4 |
| 20260905121817 | 67 | 307 | 3.0 | 5.0 | 0.00 | 0.05 | 0.00 | 100 | 1013.4 |
| 20260905121703 | 67 | 313 | 2.0 | 5.0 | 0.00 | 0.05 | 0.00 | 100 | 1013.4 |
| 20260905121517 | 67 | 289 | 2.0 | 3.0 | 0.00 | 0.05 | 0.00 | 100 | 1013.2 |
| 20260905121503 | 67 | 293 | 1.0 | 3.0 | 0.00 | 0.05 | 0.00 | 100 | 1013.2 |
| 20260905121403 | 67 | 252 | 1.0 | 3.0 | 0.00 | 0.05 | 0.00 | 100 | 1013.6 |
| 20260905121203 | 67 | 221 | 2.0 | 4.0 | 0.00 | 0.05 | 0.00 | 100 | 1013.4 |
| 20260905121103 | 67 | 241 | 2.0 | 4.0 | 0.00 | 0.05 | 0.00 | 100 | 1013.4 |
| 20260905121003 | 67 | 226 | 1.0 | 4.0 | 0.00 | 0.05 | 0.00 | 100 | 1013.3 |
| 20260905120903 | 67 | 248 | 1.0 | 4.0 | 0.00 | 0.05 | 0.00 | 100 | 1013.3 |
| 20260905120803 | 67 | 214 | 1.0 | 4.0 | 0.00 | 0.05 | 0.00 | 100 | 1013.4 |
| 20260905120703 | 67 | 197 | 0.0 | 3.0 | 0.00 | 0.05 | 0.00 | 100 | 1013.4 |
| 20260905120503 | 67 | 291 | 0.0 | 4.0 | 0.00 | 0.05 | 0.00 | 100 | 1013.2 |
| 20260905120403 | 67 | 338 | 1.0 | 4.0 | 0.00 | 0.05 | 0.00 | 100 | 1013.3 |
| 20260905120203 | 67 | 204 | 1.0 | 4.0 | 0.00 | 0.05 | 0.00 | 100 | 1013.5 |
| 20260905120003 | 67 | 327 | 2.0 | 5.0 | 0.00 | 0.05 | 0.00 | 100 | 1013.3 |
| 20260905115903 | 67 | 339 | 2.0 | 5.0 | 0.00 | 0.05 | 0.00 | 100 | 1013.3 |
| 20260905115803 | 67 | 280 | 2.0 | 5.0 | 0.00 | 0.05 | 0.00 | 100 | 1013.4 |
| 20260905115703 | 67 | 290 | 3.0 | 5.0 | 0.00 | 0.05 | 0.00 | 100 | 1013.2 |
| 20260905115603 | 67 | 324 | 2.0 | 5.0 | 0.00 | 0.05 | 0.00 | 100 | 1013.3 |
| 20260905115503 | 67 | 305 | 2.0 | 5.0 | 0.00 | 0.05 | 0.00 | 100 | 1013.1 |
| 20260905115403 | 67 | 271 | 2.0 | 5.0 | 0.00 | 0.05 | 0.00 | 100 | 1013.1 |
| 20260905115306 | 67 | 274 | 2.0 | 7.0 | 0.00 | 0.05 | 0.00 | 100 | 1013.1 |
| 20260905115203 | 67 | 240 | 2.0 | 7.0 | 0.00 | 0.05 | 0.00 | 100 | 1013.3 |
| 20260905115103 | 67 | 271 | 4.0 | 7.0 | 0.00 | 0.05 | 0.00 | 100 | 1013.0 |
| 20260905115018 | 67 | 288 | 4.0 | 7.0 | 0.00 | 0.05 | 0.00 | 100 | 1013.3 |
| 20260905115003 | 67 | 284 | 4.0 | 7.0 | 0.00 | 0.05 | 0.00 | 100 | 1013.3 |
| 20260905114903 | 67 | 279 | 4.0 | 7.0 | 0.00 | 0.05 | 0.00 | 100 | 1013.2 |
| 20260905114703 | 67 | 291 | 3.0 | 5.0 | 0.00 | 0.05 | 0.00 | 100 | 1013.2 |
| 20260905114603 | 67 | 279 | 2.0 | 4.0 | 0.00 | 0.05 | 0.00 | 100 | 1013.0 |
| 20260905114503 | 67 | 246 | 1.0 | 4.0 | 0.00 | 0.05 | 0.00 | 100 | 1013.1 |
| 20260905114417 | 67 | 286 | 1.0 | 3.0 | 0.00 | 0.05 | 0.00 | 100 | 1013.1 |
| 20260905114403 | 67 | 298 | 1.0 | 3.0 | 0.00 | 0.05 | 0.00 | 100 | 1013.1 |
| 20260905114303 | 67 | 247 | 1.0 | 3.0 | 0.00 | 0.05 | 0.00 | 100 | 1013.1 |
| 20260905114103 | 67 | 283 | 1.0 | 3.0 | 0.00 | 0.05 | 0.00 | 100 | 1013.0 |
| 20260905114003 | 67 | 240 | 1.0 | 4.0 | 0.00 | 0.05 | 0.00 | 100 | 1012.9 |
| 20260905113903 | 67 | 271 | 1.0 | 4.0 | 0.00 | 0.05 | 0.00 | 100 | 1012.9 |
| 20260905113803 | 67 | 269 | 2.0 | 4.0 | 0.00 | 0.05 | 0.00 | 100 | 1013.2 |
| 20260905113703 | 67 | 245 | 2.0 | 4.0 | 0.00 | 0.05 | 0.00 | 100 | 1012.9 |
| 20260905113603 | 67 | 220 | 1.0 | 4.0 | 0.00 | 0.05 | 0.00 | 100 | 1013.0 |
| 20260905113503 | 67 | 233 | 1.0 | 4.0 | 0.00 | 0.05 | 0.00 | 100 | 1013.0 |
| 20260905113403 | 67 | 255 | 2.0 | 5.0 | 0.00 | 0.05 | 0.00 | 100 | 1012.9 |
| 20260905113318 | 67 | 273 | 1.0 | 5.0 | 0.00 | 0.05 | 0.00 | 100 | 1012.9 |
| 20260905113303 | 67 | 260 | 2.0 | 5.0 | 0.00 | 0.05 | 0.00 | 100 | 1012.9 |
| 20260905113217 | 67 | 226 | 1.0 | 5.0 | 0.00 | 0.05 | 0.00 | 100 | 1012.7 |
| 20260905113203 | 67 | 229 | 1.0 | 5.0 | 0.00 | 0.05 | 0.00 | 100 | 1012.7 |
| 20260905112903 | 67 | 239 | 2.0 | 5.0 | 0.00 | 0.05 | 0.00 | 100 | 1012.7 |
| 20260905112803 | 67 | 261 | 2.0 | 5.0 | 0.00 | 0.05 | 0.00 | 100 | 1013.0 |
| 20260905112703 | 67 | 230 | 2.0 | 5.0 | 0.00 | 0.05 | 0.00 | 100 | 1013.0 |
| 20260905112603 | 67 | 268 | 2.0 | 5.0 | 0.00 | 0.05 | 0.00 | 100 | 1012.6 |
| 20260905112503 | 67 | 285 | 2.0 | 5.0 | 0.00 | 0.05 | 0.00 | 100 | 1012.9 |
| 20260905112403 | 67 | 222 | 2.0 | 5.0 | 0.00 | 0.05 | 0.00 | 100 | 1012.6 |
| 20260905112305 | 67 | 282 | 2.0 | 5.0 | 0.00 | 0.05 | 0.00 | 100 | 1012.7 |
| 20260905112203 | 67 | 244 | 3.0 | 5.0 | 0.00 | 0.05 | 0.00 | 100 | 1012.6 |
| 20260905112103 | 67 | 273 | 2.0 | 5.0 | 0.00 | 0.05 | 0.00 | 100 | 1012.7 |
| 20260905112003 | 67 | 278 | 3.0 | 5.0 | 0.00 | 0.05 | 0.00 | 100 | 1012.9 |
| 20260905111903 | 67 | 282 | 3.0 | 5.0 | 0.00 | 0.05 | 0.00 | 100 | 1012.9 |
| 20260905111803 | 67 | 255 | 2.0 | 4.0 | 0.00 | 0.05 | 0.00 | 100 | 1012.9 |
| 20260905111717 | 67 | 253 | 0.0 | 2.0 | 0.00 | 0.05 | 0.00 | 100 | 1012.6 |
| 20260905111703 | 67 | 249 | 0.0 | 2.0 | 0.00 | 0.05 | 0.00 | 100 | 1012.6 |
| 20260905111603 | 67 | 288 | 0.0 | 3.0 | 0.00 | 0.05 | 0.00 | 100 | 1012.9 |
| 20260905111403 | 67 | 250 | 1.0 | 3.0 | 0.00 | 0.05 | 0.00 | 100 | 1012.6 |
| 20260905111303 | 67 | 293 | 1.0 | 3.0 | 0.00 | 0.05 | 0.00 | 100 | 1012.9 |
| 20260905111203 | 67 | 316 | 1.0 | 3.0 | 0.00 | 0.05 | 0.00 | 100 | 1012.9 |
| 20260905111103 | 67 | 120 | 0.0 | 3.0 | 0.00 | 0.05 | 0.00 | 100 | 1012.9 |
| 20260905111003 | 67 | 221 | 0.0 | 3.0 | 0.00 | 0.05 | 0.00 | 100 | 1013.1 |
| 20260905110903 | 67 | 246 | 0.0 | 3.0 | 0.00 | 0.05 | 0.00 | 100 | 1012.9 |
| 20260905110803 | 67 | 326 | 0.0 | 3.0 | 0.00 | 0.05 | 0.00 | 100 | 1013.0 |
| 20260905110703 | 67 | 325 | 0.0 | 3.0 | 0.00 | 0.05 | 0.00 | 100 | 1012.7 |
| 20260905110603 | 67 | 290 | 0.0 | 4.0 | 0.00 | 0.05 | 0.00 | 100 | 1013.0 |
| 20260905110517 | 67 | 284 | 0.0 | 5.0 | 0.00 | 0.05 | 0.00 | 100 | 1012.7 |
| 20260905110503 | 67 | 320 | 0.0 | 5.0 | 0.00 | 0.05 | 0.00 | 100 | 1012.7 |
| 20260905110403 | 67 | 277 | 1.0 | 5.0 | 0.00 | 0.05 | 0.00 | 100 | 1012.9 |
| 20260905110203 | 67 | 278 | 2.0 | 6.0 | 0.00 | 0.05 | 0.00 | 100 | 1013.0 |
| 20260905110003 | 67 | 297 | 2.0 | 6.0 | 0.00 | 0.05 | 0.00 | 100 | 1013.1 |
| 20260905105903 | 67 | 246 | 2.0 | 6.0 | 0.00 | 0.05 | 0.00 | 100 | 1013.0 |
| 20260905105803 | 67 | 316 | 3.0 | 6.0 | 0.00 | 0.05 | 0.00 | 100 | 1013.0 |
| 20260905105603 | 67 | 209 | 1.0 | 7.0 | 0.00 | 0.05 | 0.00 | 100 | 1013.0 |
| 20260905105503 | 67 | 227 | 1.0 | 7.0 | 0.00 | 0.05 | 0.00 | 100 | 1012.9 |
| 20260905105403 | 67 | 343 | 1.0 | 7.0 | 0.00 | 0.05 | 0.00 | 100 | 1012.7 |
| 20260905105318 | 67 | 262 | 2.0 | 7.0 | 0.00 | 0.05 | 0.00 | 100 | 1013.1 |
| 20260905105306 | 67 | 36 | 3.0 | 7.0 | 0.00 | 0.05 | 0.00 | 100 | 1013.1 |
| 20260905105203 | 67 | 48 | 3.0 | 7.0 | 0.00 | 0.05 | 0.00 | 100 | 1012.7 |
| 20260905105003 | 67 | 238 | 2.0 | 5.0 | 0.00 | 0.05 | 0.00 | 100 | 1013.0 |
| 20260905104903 | 67 | 318 | 2.0 | 5.0 | 0.00 | 0.05 | 0.00 | 100 | 1013.0 |
| 20260905104803 | 67 | 287 | 1.0 | 5.0 | 0.00 | 0.05 | 0.00 | 100 | 1013.1 |
| 20260905104703 | 67 | 284 | 1.0 | 3.0 | 0.00 | 0.05 | 0.00 | 100 | 1012.7 |
| 20260905104618 | 67 | 224 | 1.0 | 3.0 | 0.00 | 0.05 | 0.00 | 100 | 1012.9 |
| 20260905104603 | 67 | 211 | 1.0 | 3.0 | 0.00 | 0.05 | 0.00 | 100 | 1012.9 |
| 20260905104505 | 67 | 318 | 1.0 | 3.0 | 0.00 | 0.05 | 0.00 | 100 | 1012.9 |
| 20260905104303 | 67 | 355 | 1.0 | 3.0 | 0.00 | 0.05 | 0.00 | 100 | 1012.9 |
| 20260905104203 | 67 | 308 | 1.0 | 4.0 | 0.00 | 0.05 | 0.00 | 100 | 1012.9 |
| 20260905104117 | 67 | 227 | 1.0 | 4.0 | 0.00 | 0.05 | 0.00 | 100 | 1012.7 |
| 20260905104103 | 67 | 217 | 1.0 | 4.0 | 0.00 | 0.05 | 0.00 | 100 | 1012.7 |
| 20260905104003 | 67 | 24 | 1.0 | 4.0 | 0.00 | 0.05 | 0.00 | 100 | 1012.9 |
| 20260905103918 | 67 | 6 | 2.0 | 4.0 | 0.00 | 0.05 | 0.00 | 100 | 1012.7 |
| 20260905103803 | 67 | 356 | 1.0 | 4.0 | 0.00 | 0.05 | 0.00 | 100 | 1012.7 |
| 20260905103603 | 67 | 37 | 1.0 | 5.0 | 0.00 | 0.05 | 0.00 | 100 | 1012.7 |
| 20260905103516 | 67 | 14 | 1.0 | 5.0 | 0.00 | 0.05 | 0.00 | 100 | 1012.7 |
| 20260905103503 | 67 | 353 | 1.0 | 5.0 | 0.00 | 0.05 | 0.00 | 100 | 1012.7 |
| 20260905103403 | 67 | 348 | 2.0 | 5.0 | 0.00 | 0.05 | 0.00 | 100 | 1012.7 |
| 20260905103203 | 67 | 284 | 1.0 | 5.0 | 0.00 | 0.05 | 0.00 | 100 | 1012.9 |
| 20260905103103 | 67 | 230 | 1.0 | 5.0 | 0.00 | 0.05 | 0.00 | 100 | 1012.7 |
| 20260905103003 | 67 | 206 | 1.0 | 5.0 | 0.00 | 0.05 | 0.00 | 100 | 1012.9 |
| 20260905102903 | 67 | 219 | 2.0 | 5.0 | 0.00 | 0.05 | 0.00 | 100 | 1012.9 |
| 20260905102803 | 67 | 340 | 2.0 | 8.0 | 0.00 | 0.05 | 0.00 | 100 | 1012.7 |
| 20260905102603 | 67 | 236 | 3.0 | 8.0 | 0.00 | 0.05 | 0.00 | 100 | 1012.9 |
| 20260905102503 | 67 | 316 | 4.0 | 8.0 | 0.00 | 0.05 | 0.00 | 100 | 1012.7 |
| 20260905102403 | 67 | 277 | 4.0 | 7.0 | 0.00 | 0.05 | 0.00 | 100 | 1012.7 |
| 20260905102306 | 68 | 2 | 3.0 | 7.0 | 0.00 | 0.05 | 0.00 | 100 | 1012.6 |
| 20260905102203 | 68 | 291 | 1.0 | 4.0 | 0.00 | 0.05 | 0.00 | 100 | 1012.6 |
| 20260905102103 | 68 | 353 | 1.0 | 4.0 | 0.00 | 0.05 | 0.00 | 100 | 1012.6 |
| 20260905102003 | 68 | 8 | 1.0 | 4.0 | 0.00 | 0.05 | 0.00 | 100 | 1012.5 |
| 20260905101903 | 68 | 231 | 0.0 | 2.0 | 0.00 | 0.05 | 0.00 | 100 | 1012.5 |
| 20260905101817 | 68 | 123 | 0.0 | 4.0 | 0.00 | 0.05 | 0.00 | 100 | 1012.5 |
| 20260905101803 | 68 | 129 | 0.0 | 4.0 | 0.00 | 0.05 | 0.00 | 100 | 1012.5 |
| 20260905101703 | 68 | 215 | 0.0 | 5.0 | 0.00 | 0.05 | 0.00 | 100 | 1012.4 |
| 20260905101503 | 68 | 245 | 1.0 | 5.0 | 0.00 | 0.05 | 0.00 | 100 | 1012.4 |
| 20260905101417 | 68 | 246 | 2.0 | 5.0 | 0.00 | 0.05 | 0.00 | 100 | 1012.4 |
| 20260905101403 | 68 | 269 | 2.0 | 5.0 | 0.00 | 0.05 | 0.00 | 100 | 1012.4 |
| 20260905101303 | 68 | 325 | 3.0 | 6.0 | 0.00 | 0.05 | 0.00 | 100 | 1012.4 |
| 20260905101103 | 68 | 318 | 2.0 | 6.0 | 0.00 | 0.05 | 0.00 | 100 | 1012.5 |
| 20260905101003 | 68 | 318 | 3.0 | 6.0 | 0.00 | 0.05 | 0.00 | 100 | 1012.4 |
| 20260905100903 | 68 | 321 | 2.0 | 6.0 | 0.00 | 0.05 | 0.00 | 100 | 1012.3 |
| 20260905100803 | 68 | 271 | 1.0 | 5.0 | 0.00 | 0.05 | 0.00 | 100 | 1012.3 |
| 20260905100703 | 68 | 266 | 2.0 | 5.0 | 0.00 | 0.05 | 0.00 | 100 | 1012.2 |
| 20260905100603 | 68 | 270 | 2.0 | 5.0 | 0.00 | 0.05 | 0.00 | 100 | 1012.3 |
| 20260905100503 | 68 | 336 | 2.0 | 5.0 | 0.00 | 0.05 | 0.00 | 100 | 1012.3 |
| 20260905100403 | 68 | 328 | 2.0 | 4.0 | 0.00 | 0.05 | 0.00 | 100 | 1012.1 |
| 20260905100317 | 68 | 337 | 1.0 | 4.0 | 0.00 | 0.05 | 0.00 | 100 | 1012.1 |
| 20260905100303 | 68 | 316 | 1.0 | 4.0 | 0.00 | 0.05 | 0.00 | 100 | 1012.1 |
| 20260905100218 | 68 | 305 | 1.0 | 4.0 | 0.00 | 0.05 | 0.00 | 100 | 1012.1 |
| 20260905100203 | 68 | 307 | 1.0 | 4.0 | 0.00 | 0.05 | 0.00 | 100 | 1012.1 |
| 20260905100017 | 68 | 246 | 1.0 | 3.0 | 0.00 | 0.05 | 0.00 | 100 | 1012.0 |
| 20260905095903 | 68 | 190 | 2.0 | 5.0 | 0.00 | 0.05 | 0.00 | 100 | 1012.0 |
| 20260905095703 | 68 | 230 | 1.0 | 5.0 | 0.00 | 0.05 | 0.00 | 100 | 1012.1 |
| 20260905095603 | 68 | 272 | 2.0 | 5.0 | 0.00 | 0.05 | 0.00 | 100 | 1012.2 |
| 20260905095503 | 68 | 304 | 2.0 | 5.0 | 0.00 | 0.05 | 0.00 | 100 | 1012.0 |
| 20260905095403 | 68 | 228 | 1.0 | 5.0 | 0.00 | 0.05 | 0.00 | 100 | 1012.1 |
| 20260905095305 | 68 | 238 | 1.0 | 5.0 | 0.00 | 0.05 | 0.00 | 100 | 1011.7 |
| 20260905095203 | 68 | 303 | 1.0 | 5.0 | 0.00 | 0.05 | 0.00 | 100 | 1012.0 |
| 20260905095103 | 68 | 310 | 1.0 | 5.0 | 0.00 | 0.05 | 0.00 | 100 | 1012.0 |
| 20260905095003 | 68 | 273 | 1.0 | 5.0 | 0.00 | 0.05 | 0.00 | 100 | 1011.8 |
| 20260905094903 | 68 | 179 | 1.0 | 6.0 | 0.00 | 0.05 | 0.00 | 100 | 1012.0 |
| 20260905094803 | 68 | 76 | 1.0 | 6.0 | 0.00 | 0.05 | 0.00 | 100 | 1012.0 |
| 20260905094703 | 68 | 250 | 1.0 | 6.0 | 0.00 | 0.05 | 0.00 | 100 | 1011.9 |
| 20260905094603 | 68 | 334 | 2.0 | 6.0 | 0.00 | 0.05 | 0.00 | 100 | 1011.9 |
| 20260905094503 | 68 | 6 | 2.0 | 7.0 | 0.00 | 0.05 | 0.00 | 100 | 1011.7 |
| 20260905094403 | 68 | 317 | 1.0 | 7.0 | 0.00 | 0.05 | 0.00 | 100 | 1012.0 |
| 20260905094303 | 68 | 343 | 1.0 | 7.0 | 0.00 | 0.05 | 0.00 | 100 | 1012.0 |
| 20260905094203 | 68 | 337 | 2.0 | 7.0 | 0.00 | 0.05 | 0.00 | 100 | 1011.8 |
| 20260905094117 | 68 | 22 | 1.0 | 7.0 | 0.00 | 0.05 | 0.00 | 100 | 1011.7 |
| 20260905094103 | 68 | 14 | 1.0 | 7.0 | 0.00 | 0.05 | 0.00 | 100 | 1011.7 |
| 20260905094003 | 68 | 5 | 1.0 | 5.0 | 0.00 | 0.05 | 0.00 | 100 | 1011.8 |
| 20260905093918 | 68 | 59 | 1.0 | 4.0 | 0.00 | 0.05 | 0.00 | 100 | 1011.8 |
| 20260905093803 | 68 | 42 | 1.0 | 4.0 | 0.00 | 0.05 | 0.00 | 100 | 1012.0 |
| 20260905093717 | 68 | 229 | 0.0 | 3.0 | 0.00 | 0.05 | 0.00 | 100 | 1011.9 |
| 20260905093603 | 68 | 234 | 1.0 | 3.0 | 0.00 | 0.05 | 0.00 | 100 | 1012.0 |
| 20260905093518 | 68 | 247 | 1.0 | 3.0 | 0.00 | 0.05 | 0.00 | 100 | 1012.0 |
| 20260905093403 | 68 | 148 | 0.0 | 3.0 | 0.00 | 0.05 | 0.00 | 100 | 1012.0 |
| 20260905093317 | 68 | 349 | 0.0 | 3.0 | 0.00 | 0.05 | 0.00 | 100 | 1011.8 |
| 20260905093203 | 68 | 123 | 0.0 | 2.0 | 0.00 | 0.05 | 0.00 | 100 | 1012.1 |
| 20260905093003 | 68 | 218 | 0.0 | 2.0 | 0.00 | 0.05 | 0.00 | 100 | 1012.2 |
| 20260905092903 | 68 | 333 | 0.0 | 2.0 | 0.00 | 0.05 | 0.00 | 100 | 1012.2 |
| 20260905092803 | 68 | 301 | 0.0 | 3.0 | 0.00 | 0.05 | 0.00 | 100 | 1012.3 |
| 20260905092703 | 68 | 223 | 0.0 | 3.0 | 0.00 | 0.05 | 0.00 | 100 | 1012.2 |
| 20260905092603 | 68 | 213 | 0.0 | 3.0 | 0.00 | 0.05 | 0.00 | 100 | 1012.2 |
| 20260905092503 | 68 | 265 | 1.0 | 3.0 | 0.00 | 0.05 | 0.00 | 100 | 1012.0 |
| 20260905092403 | 68 | 272 | 0.0 | 3.0 | 0.00 | 0.05 | 0.00 | 100 | 1012.0 |
| 20260905092306 | 68 | 242 | 0.0 | 2.0 | 0.00 | 0.05 | 0.00 | 100 | 1012.1 |
| 20260905092203 | 68 | 234 | 0.0 | 3.0 | 0.00 | 0.05 | 0.00 | 100 | 1012.1 |
| 20260905092118 | 68 | 340 | 0.0 | 3.0 | 0.00 | 0.05 | 0.00 | 100 | 1012.1 |
| 20260905092103 | 68 | 354 | 0.0 | 3.0 | 0.00 | 0.05 | 0.00 | 100 | 1012.1 |
| 20260905092003 | 68 | 344 | 0.0 | 3.0 | 0.00 | 0.05 | 0.00 | 100 | 1012.0 |
| 20260905091803 | 68 | 341 | 0.0 | 3.0 | 0.00 | 0.05 | 0.00 | 100 | 1012.1 |
| 20260905091703 | 68 | 270 | 0.0 | 3.0 | 0.00 | 0.05 | 0.00 | 100 | 1012.0 |
| 20260905091603 | 68 | 270 | 1.0 | 3.0 | 0.00 | 0.05 | 0.00 | 100 | 1012.1 |
| 20260905091403 | 68 | 241 | 1.0 | 3.0 | 0.00 | 0.05 | 0.00 | 100 | 1012.2 |
| 20260905091303 | 68 | 237 | 0.0 | 3.0 | 0.00 | 0.05 | 0.00 | 100 | 1012.1 |
| 20260905091203 | 68 | 222 | 1.0 | 3.0 | 0.00 | 0.05 | 0.00 | 100 | 1012.2 |
| 20260905091116 | 68 | 214 | 1.0 | 4.0 | 0.00 | 0.05 | 0.00 | 100 | 1012.0 |
| 20260905091103 | 68 | 208 | 1.0 | 4.0 | 0.00 | 0.05 | 0.00 | 100 | 1012.0 |
| 20260905091003 | 68 | 166 | 1.0 | 4.0 | 0.00 | 0.05 | 0.00 | 100 | 1012.1 |
| 20260905090818 | 68 | 243 | 1.0 | 4.0 | 0.00 | 0.05 | 0.00 | 100 | 1012.0 |
| 20260905090803 | 68 | 294 | 1.0 | 4.0 | 0.00 | 0.05 | 0.00 | 100 | 1012.0 |
| 20260905090703 | 68 | 246 | 0.0 | 4.0 | 0.00 | 0.05 | 0.00 | 100 | 1012.1 |
| 20260905090503 | 68 | 337 | 1.0 | 3.0 | 0.00 | 0.05 | 0.00 | 100 | 1011.9 |
| 20260905090405 | 68 | 331 | 1.0 | 3.0 | 0.00 | 0.05 | 0.00 | 100 | 1012.0 |
| 20260905090317 | 68 | 327 | 1.0 | 3.0 | 0.00 | 0.05 | 0.00 | 100 | 1011.9 |
| 20260905090303 | 68 | 320 | 1.0 | 3.0 | 0.00 | 0.05 | 0.00 | 100 | 1011.9 |
| 20260905090203 | 68 | 347 | 0.0 | 4.0 | 0.00 | 0.05 | 0.00 | 100 | 1011.9 |
| 20260905090116 | 68 | 298 | 0.0 | 4.0 | 0.00 | 0.05 | 0.00 | 100 | 1011.9 |
| 20260905090003 | 68 | 298 | 1.0 | 5.0 | 0.00 | 0.05 | 0.00 | 100 | 1011.9 |
| 20260905085803 | 68 | 265 | 3.0 | 5.0 | 0.00 | 0.05 | 0.00 | 100 | 1012.1 |
| 20260905085703 | 68 | 284 | 3.0 | 5.0 | 0.00 | 0.05 | 0.00 | 100 | 1012.0 |
| 20260905085617 | 68 | 286 | 3.0 | 5.0 | 0.00 | 0.05 | 0.00 | 100 | 1012.1 |
| 20260905085603 | 68 | 288 | 3.0 | 5.0 | 0.00 | 0.05 | 0.00 | 100 | 1012.1 |
| 20260905085503 | 68 | 297 | 3.0 | 4.0 | 0.00 | 0.05 | 0.00 | 100 | 1012.1 |
| 20260905085305 | 68 | 268 | 2.0 | 4.0 | 0.00 | 0.05 | 0.00 | 100 | 1012.1 |
| 20260905085218 | 68 | 275 | 1.0 | 4.0 | 0.00 | 0.05 | 0.00 | 100 | 1011.8 |
| 20260905085203 | 68 | 282 | 1.0 | 4.0 | 0.00 | 0.05 | 0.00 | 100 | 1011.8 |
| 20260905085103 | 68 | 306 | 0.0 | 2.0 | 0.00 | 0.05 | 0.00 | 100 | 1012.0 |
| 20260905084903 | 68 | 347 | 0.0 | 2.0 | 0.00 | 0.05 | 0.00 | 100 | 1011.7 |
| 20260905084803 | 68 | 237 | 0.0 | 2.0 | 0.00 | 0.05 | 0.00 | 100 | 1011.8 |
| 20260905084703 | 68 | 265 | 0.0 | 2.0 | 0.00 | 0.05 | 0.00 | 100 | 1011.8 |
| 20260905084603 | 68 | 308 | 0.0 | 2.0 | 0.00 | 0.05 | 0.00 | 100 | 1012.1 |
| 20260905084503 | 68 | 311 | 0.0 | 2.0 | 0.00 | 0.05 | 0.00 | 100 | 1012.0 |
| 20260905084403 | 68 | 11 | 0.0 | 3.0 | 0.00 | 0.05 | 0.00 | 100 | 1012.0 |
| 20260905084303 | 68 | 7 | 0.0 | 3.0 | 0.00 | 0.05 | 0.00 | 100 | 1012.0 |
| 20260905084203 | 68 | 10 | 1.0 | 3.0 | 0.00 | 0.05 | 0.00 | 100 | 1012.0 |
| 20260905084103 | 68 | 332 | 1.0 | 3.0 | 0.00 | 0.05 | 0.00 | 100 | 1011.9 |
| 20260905084003 | 68 | 297 | 2.0 | 3.0 | 0.00 | 0.05 | 0.00 | 100 | 1012.3 |
| 20260905083903 | 68 | 283 | 2.0 | 3.0 | 0.00 | 0.05 | 0.00 | 100 | 1012.0 |
| 20260905083803 | 68 | 272 | 1.0 | 3.0 | 0.00 | 0.05 | 0.00 | 100 | 1011.9 |
| 20260905083716 | 68 | 278 | 1.0 | 3.0 | 0.00 | 0.05 | 0.00 | 100 | 1012.2 |
| 20260905083703 | 68 | 280 | 1.0 | 3.0 | 0.00 | 0.05 | 0.00 | 100 | 1012.2 |
| 20260905083603 | 68 | 273 | 2.0 | 3.0 | 0.00 | 0.05 | 0.00 | 100 | 1012.1 |
| 20260905083403 | 68 | 280 | 1.0 | 3.0 | 0.00 | 0.05 | 0.00 | 100 | 1012.0 |
| 20260905083303 | 68 | 304 | 1.0 | 3.0 | 0.00 | 0.05 | 0.00 | 100 | 1012.3 |
| 20260905083203 | 68 | 306 | 1.0 | 3.0 | 0.00 | 0.05 | 0.00 | 100 | 1012.0 |
| 20260905083118 | 68 | 268 | 1.0 | 3.0 | 0.00 | 0.05 | 0.00 | 100 | 1012.0 |
| 20260905083103 | 68 | 269 | 1.0 | 3.0 | 0.00 | 0.05 | 0.00 | 100 | 1012.0 |
| 20260905083003 | 68 | 263 | 1.0 | 3.0 | 0.00 | 0.05 | 0.00 | 100 | 1012.1 |
| 20260905082803 | 68 | 253 | 1.0 | 3.0 | 0.00 | 0.05 | 0.00 | 100 | 1011.9 |
| 20260905082703 | 68 | 225 | 1.0 | 3.0 | 0.00 | 0.05 | 0.00 | 100 | 1011.9 |
| 20260905082603 | 68 | 231 | 1.0 | 3.0 | 0.00 | 0.05 | 0.00 | 100 | 1011.8 |
| 20260905082503 | 68 | 213 | 2.0 | 3.0 | 0.00 | 0.05 | 0.00 | 100 | 1012.1 |
| 20260905082416 | 68 | 218 | 2.0 | 3.0 | 0.00 | 0.05 | 0.00 | 100 | 1012.2 |
| 20260905082317 | 68 | 222 | 1.0 | 3.0 | 0.00 | 0.05 | 0.00 | 100 | 1012.0 |
| 20260905082306 | 68 | 219 | 2.0 | 3.0 | 0.00 | 0.05 | 0.00 | 100 | 1012.0 |
| 20260905082003 | 68 | 225 | 2.0 | 3.0 | 0.00 | 0.05 | 0.00 | 100 | 1012.2 |
| 20260905081903 | 68 | 200 | 1.0 | 3.0 | 0.00 | 0.05 | 0.00 | 100 | 1012.1 |
| 20260905081803 | 68 | 217 | 1.0 | 3.0 | 0.00 | 0.05 | 0.00 | 100 | 1012.1 |
| 20260905081703 | 68 | 223 | 1.0 | 2.0 | 0.00 | 0.05 | 0.00 | 100 | 1011.9 |
| 20260905081603 | 68 | 216 | 1.0 | 2.0 | 0.00 | 0.05 | 0.00 | 100 | 1012.2 |
| 20260905081503 | 68 | 206 | 1.0 | 2.0 | 0.00 | 0.05 | 0.00 | 100 | 1012.2 |
| 20260905081403 | 68 | 218 | 2.0 | 2.0 | 0.00 | 0.05 | 0.00 | 100 | 1012.1 |
| 20260905081303 | 68 | 216 | 1.0 | 2.0 | 0.00 | 0.05 | 0.00 | 100 | 1012.0 |
| 20260905081203 | 68 | 0 | 0.0 | 0.0 | 0.00 | 0.05 | 0.00 | 100 | 1012.1 |
| 20260905081103 | 68 | 0 | 0.0 | 0.0 | 0.00 | 0.05 | 0.00 | 100 | 1012.1 |
| 20260905081003 | 68 | 0 | 0.0 | 0.0 | 0.00 | 0.05 | 0.00 | 100 | 1012.0 |
| 20260905080903 | 68 | 0 | 0.0 | 0.0 | 0.00 | 0.05 | 0.00 | 100 | 1012.1 |
| 20260905080803 | 68 | 0 | 0.0 | 0.0 | 0.00 | 0.05 | 0.00 | 100 | 1012.2 |
| 20260905080703 | 68 | 0 | 0.0 | 0.0 | 0.00 | 0.05 | 0.00 | 100 | 1011.9 |
| 20260905080603 | 68 | 0 | 0.0 | 2.0 | 0.00 | 0.05 | 0.00 | 100 | 1012.2 |
| 20260905080503 | 68 | 0 | 0.0 | 2.0 | 0.00 | 0.05 | 0.00 | 100 | 1012.1 |
| 20260905080403 | 68 | 219 | 0.0 | 2.0 | 0.00 | 0.05 | 0.00 | 100 | 1012.1 |
| 20260905080203 | 68 | 200 | 0.0 | 2.0 | 0.00 | 0.05 | 0.00 | 100 | 1012.0 |
| 20260905080003 | 68 | 0 | 0.0 | 0.0 | 0.00 | 0.05 | 0.00 | 100 | 1012.0 |
| 20260905075903 | 68 | 0 | 0.0 | 0.0 | 0.00 | 0.05 | 0.00 | 100 | 1012.1 |
| 20260905075803 | 68 | 0 | 0.0 | 0.0 | 0.00 | 0.05 | 0.00 | 100 | 1012.0 |
| 20260905075703 | 68 | 0 | 0.0 | 0.0 | 0.00 | 0.05 | 0.00 | 100 | 1012.1 |
| 20260905075603 | 68 | 0 | 0.0 | 0.0 | 0.00 | 0.05 | 0.00 | 100 | 1012.1 |
| 20260905075503 | 68 | 0 | 0.0 | 0.0 | 0.00 | 0.05 | 0.00 | 100 | 1012.1 |
| 20260905075403 | 68 | 0 | 0.0 | 0.0 | 0.00 | 0.05 | 0.00 | 100 | 1012.1 |
| 20260905075306 | 68 | 0 | 0.0 | 0.0 | 0.00 | 0.05 | 0.00 | 100 | 1012.1 |
| 20260905075203 | 68 | 0 | 0.0 | 0.0 | 0.00 | 0.05 | 0.00 | 100 | 1012.1 |
| 20260905075118 | 68 | 0 | 0.0 | 0.0 | 0.00 | 0.05 | 0.00 | 100 | 1012.2 |
| 20260905075003 | 68 | 0 | 0.0 | 0.0 | 0.00 | 0.05 | 0.00 | 100 | 1012.2 |
| 20260905074803 | 68 | 0 | 0.0 | 0.0 | 0.00 | 0.05 | 0.00 | 100 | 1012.1 |
| 20260905074703 | 68 | 0 | 0.0 | 0.0 | 0.00 | 0.05 | 0.00 | 100 | 1012.2 |
| 20260905074603 | 68 | 0 | 0.0 | 0.0 | 0.00 | 0.05 | 0.00 | 100 | 1011.9 |
| 20260905074503 | 68 | 0 | 0.0 | 0.0 | 0.00 | 0.05 | 0.00 | 100 | 1012.1 |
| 20260905074403 | 68 | 0 | 0.0 | 0.0 | 0.00 | 0.05 | 0.00 | 100 | 1012.1 |
| 20260905074303 | 68 | 0 | 0.0 | 0.0 | 0.00 | 0.05 | 0.00 | 100 | 1012.2 |
| 20260905074203 | 68 | 0 | 0.0 | 0.0 | 0.00 | 0.05 | 0.00 | 100 | 1012.2 |
| 20260905074103 | 68 | 0 | 0.0 | 0.0 | 0.00 | 0.05 | 0.00 | 100 | 1012.3 |
| 20260905074003 | 68 | 0 | 0.0 | 0.0 | 0.00 | 0.05 | 0.00 | 100 | 1012.2 |
| 20260905073903 | 68 | 0 | 0.0 | 0.0 | 0.00 | 0.05 | 0.00 | 100 | 1012.1 |
| 20260905073803 | 68 | 0 | 0.0 | 2.0 | 0.00 | 0.05 | 0.00 | 100 | 1012.2 |
| 20260905073703 | 68 | 0 | 0.0 | 2.0 | 0.00 | 0.05 | 0.00 | 100 | 1012.2 |
| 20260905073603 | 68 | 289 | 0.0 | 2.0 | 0.00 | 0.05 | 0.00 | 100 | 1012.2 |
| 20260905073503 | 68 | 288 | 1.0 | 2.0 | 0.00 | 0.05 | 0.00 | 100 | 1012.4 |
| 20260905073303 | 68 | 244 | 0.0 | 2.0 | 0.00 | 0.05 | 0.00 | 100 | 1012.4 |
| 20260905073203 | 68 | 256 | 0.0 | 2.0 | 0.00 | 0.05 | 0.00 | 100 | 1012.1 |
| 20260905073103 | 68 | 223 | 0.0 | 2.0 | 0.00 | 0.05 | 0.00 | 100 | 1012.3 |
| 20260905073003 | 68 | 232 | 0.0 | 2.0 | 0.00 | 0.05 | 0.00 | 100 | 1012.3 |
| 20260905072803 | 68 | 230 | 0.0 | 2.0 | 0.00 | 0.05 | 0.00 | 100 | 1012.4 |
| 20260905072703 | 68 | 0 | 0.0 | 0.0 | 0.00 | 0.05 | 0.00 | 100 | 1012.3 |
| 20260905072603 | 68 | 0 | 0.0 | 0.0 | 0.00 | 0.05 | 0.00 | 100 | 1012.2 |
| 20260905072503 | 68 | 0 | 0.0 | 0.0 | 0.00 | 0.05 | 0.00 | 100 | 1012.3 |
| 20260905072403 | 68 | 0 | 0.0 | 0.0 | 0.00 | 0.05 | 0.00 | 100 | 1012.4 |
| 20260905072305 | 68 | 0 | 0.0 | 2.0 | 0.00 | 0.05 | 0.00 | 100 | 1012.2 |
| 20260905072203 | 68 | 0 | 0.0 | 2.0 | 0.00 | 0.05 | 0.00 | 100 | 1012.3 |
| 20260905072117 | 68 | 0 | 0.0 | 2.0 | 0.00 | 0.05 | 0.00 | 100 | 1012.4 |
| 20260905072103 | 68 | 307 | 0.0 | 2.0 | 0.00 | 0.05 | 0.00 | 100 | 1012.4 |
| 20260905072003 | 68 | 302 | 0.0 | 2.0 | 0.00 | 0.05 | 0.00 | 100 | 1012.3 |
| 20260905071803 | 68 | 268 | 0.0 | 2.0 | 0.00 | 0.05 | 0.00 | 100 | 1012.4 |
| 20260905071703 | 68 | 307 | 0.0 | 2.0 | 0.00 | 0.05 | 0.00 | 100 | 1012.4 |
| 20260905071603 | 69 | 307 | 0.0 | 2.0 | 0.00 | 0.05 | 0.00 | 100 | 1012.5 |
| 20260905071503 | 69 | 331 | 0.0 | 2.0 | 0.00 | 0.05 | 0.00 | 100 | 1012.5 |
| 20260905071403 | 69 | 341 | 0.0 | 2.0 | 0.00 | 0.05 | 0.00 | 100 | 1012.4 |
| 20260905071316 | 69 | 323 | 0.0 | 2.0 | 0.00 | 0.05 | 0.00 | 100 | 1012.5 |
| 20260905071303 | 69 | 310 | 0.0 | 2.0 | 0.00 | 0.05 | 0.00 | 100 | 1012.5 |
| 20260905071203 | 69 | 297 | 1.0 | 2.0 | 0.00 | 0.05 | 0.00 | 100 | 1012.1 |
| 20260905071003 | 69 | 296 | 0.0 | 2.0 | 0.00 | 0.05 | 0.00 | 100 | 1012.4 |
| 20260905070903 | 69 | 319 | 0.0 | 2.0 | 0.00 | 0.05 | 0.00 | 100 | 1012.5 |
| 20260905070803 | 69 | 342 | 0.0 | 2.0 | 0.00 | 0.05 | 0.00 | 100 | 1012.5 |
| 20260905070703 | 69 | 356 | 0.0 | 2.0 | 0.00 | 0.05 | 0.00 | 100 | 1012.5 |
| 20260905070603 | 69 | 341 | 0.0 | 2.0 | 0.00 | 0.05 | 0.00 | 100 | 1012.5 |
| 20260905070503 | 69 | 306 | 0.0 | 2.0 | 0.00 | 0.05 | 0.00 | 100 | 1012.4 |
| 20260905070403 | 69 | 247 | 0.0 | 2.0 | 0.00 | 0.05 | 0.00 | 100 | 1012.7 |
| 20260905070303 | 69 | 232 | 0.0 | 2.0 | 0.00 | 0.05 | 0.00 | 100 | 1012.7 |
| 20260905070203 | 69 | 228 | 0.0 | 2.0 | 0.00 | 0.05 | 0.00 | 100 | 1012.5 |
| 20260905070003 | 69 | 254 | 0.0 | 2.0 | 0.00 | 0.05 | 0.00 | 100 | 1012.4 |
| 20260905065903 | 69 | 265 | 0.0 | 2.0 | 0.00 | 0.05 | 0.00 | 100 | 1012.5 |
| 20260905065803 | 69 | 309 | 0.0 | 2.0 | 0.00 | 0.05 | 0.00 | 100 | 1012.7 |
| 20260905065703 | 69 | 329 | 0.0 | 2.0 | 0.00 | 0.05 | 0.00 | 100 | 1012.9 |
| 20260905065617 | 69 | 321 | 0.0 | 2.0 | 0.00 | 0.05 | 0.00 | 100 | 1012.9 |
| 20260905065603 | 69 | 320 | 0.0 | 2.0 | 0.00 | 0.05 | 0.00 | 100 | 1012.9 |
| 20260905065503 | 69 | 306 | 0.0 | 2.0 | 0.00 | 0.05 | 0.00 | 100 | 1013.1 |
| 20260905065306 | 69 | 220 | 0.0 | 2.0 | 0.00 | 0.05 | 0.00 | 100 | 1012.9 |
| 20260905065203 | 69 | 220 | 0.0 | 2.0 | 0.00 | 0.05 | 0.00 | 100 | 1013.1 |
| 20260905065117 | 69 | 220 | 0.0 | 3.0 | 0.00 | 0.05 | 0.00 | 100 | 1012.7 |
| 20260905065103 | 69 | 231 | 0.0 | 3.0 | 0.00 | 0.05 | 0.00 | 100 | 1012.7 |
| 20260905065003 | 69 | 264 | 0.0 | 3.0 | 0.00 | 0.06 | 0.00 | 100 | 1013.0 |
| 20260905064803 | 69 | 266 | 2.0 | 3.0 | 0.00 | 0.06 | 0.00 | 100 | 1013.1 |
| 20260905064703 | 69 | 317 | 1.0 | 3.0 | 0.00 | 0.06 | 0.00 | 100 | 1013.0 |
| 20260905064616 | 69 | 23 | 0.0 | 2.0 | 0.00 | 0.06 | 0.00 | 100 | 1013.1 |
| 20260905064603 | 69 | 61 | 0.0 | 2.0 | 0.00 | 0.06 | 0.00 | 100 | 1013.1 |
| 20260905064517 | 69 | 46 | 0.0 | 2.0 | 0.00 | 0.06 | 0.00 | 100 | 1013.1 |
| 20260905064503 | 69 | 2 | 0.0 | 2.0 | 0.00 | 0.06 | 0.00 | 100 | 1013.1 |
| 20260905064217 | 69 | 251 | 1.0 | 5.0 | 0.00 | 0.06 | 0.00 | 100 | 1013.2 |
| 20260905064203 | 69 | 288 | 1.0 | 5.0 | 0.00 | 0.06 | 0.00 | 100 | 1013.2 |
| 20260905064103 | 69 | 321 | 1.0 | 5.0 | 0.00 | 0.06 | 0.00 | 100 | 1013.2 |
| 20260905063903 | 69 | 247 | 0.0 | 3.0 | 0.00 | 0.06 | 0.00 | 100 | 1013.2 |
| 20260905063803 | 69 | 244 | 1.0 | 3.0 | 0.00 | 0.06 | 0.00 | 100 | 1013.3 |
| 20260905063703 | 68 | 211 | 1.0 | 3.0 | 0.00 | 0.06 | 0.00 | 100 | 1013.3 |
| 20260905063603 | 68 | 202 | 0.0 | 2.0 | 0.00 | 0.06 | 0.00 | 100 | 1013.1 |
| 20260905063503 | 68 | 201 | 1.0 | 2.0 | 0.00 | 0.06 | 0.00 | 100 | 1013.1 |
| 20260905063403 | 68 | 228 | 0.0 | 2.0 | 0.00 | 0.06 | 0.00 | 100 | 1013.3 |
| 20260905063203 | 68 | 226 | 0.0 | 2.0 | 0.00 | 0.06 | 0.00 | 100 | 1013.2 |
| 20260905063103 | 68 | 222 | 1.0 | 2.0 | 0.00 | 0.06 | 0.00 | 100 | 1013.2 |
| 20260905063003 | 68 | 215 | 1.0 | 2.0 | 0.00 | 0.06 | 0.00 | 100 | 1013.1 |
| 20260905062903 | 68 | 208 | 2.0 | 2.0 | 0.00 | 0.06 | 0.00 | 100 | 1013.3 |
| 20260905062803 | 68 | 203 | 2.0 | 2.0 | 0.00 | 0.06 | 0.00 | 100 | 1013.2 |
| 20260905062703 | 68 | 202 | 1.0 | 2.0 | 0.00 | 0.06 | 0.00 | 100 | 1013.3 |
| 20260905062603 | 68 | 207 | 1.0 | 2.0 | 0.00 | 0.06 | 0.00 | 100 | 1013.3 |
| 20260905062503 | 68 | 214 | 1.0 | 2.0 | 0.00 | 0.06 | 0.00 | 100 | 1013.2 |
| 20260905062403 | 68 | 220 | 1.0 | 2.0 | 0.00 | 0.06 | 0.00 | 100 | 1013.2 |
| 20260905062305 | 68 | 224 | 1.0 | 2.0 | 0.00 | 0.06 | 0.00 | 100 | 1013.2 |
| 20260905062203 | 68 | 233 | 0.0 | 2.0 | 0.00 | 0.06 | 0.00 | 100 | 1013.2 |
| 20260905062103 | 68 | 236 | 0.0 | 2.0 | 0.00 | 0.06 | 0.00 | 100 | 1013.5 |
| 20260905062003 | 68 | 0 | 0.0 | 0.0 | 0.00 | 0.06 | 0.00 | 100 | 1013.3 |
| 20260905061903 | 68 | 0 | 0.0 | 0.0 | 0.00 | 0.06 | 0.00 | 100 | 1013.3 |
| 20260905061803 | 68 | 0 | 0.0 | 0.0 | 0.00 | 0.06 | 0.00 | 100 | 1013.3 |
| 20260905061603 | 68 | 0 | 0.0 | 0.0 | 0.00 | 0.06 | 0.00 | 100 | 1013.1 |
| 20260905061503 | 68 | 0 | 0.0 | 0.0 | 0.00 | 0.06 | 0.00 | 100 | 1013.1 |
| 20260905061403 | 68 | 0 | 0.0 | 0.0 | 0.00 | 0.06 | 0.00 | 100 | 1013.2 |
| 20260905061303 | 68 | 0 | 0.0 | 0.0 | 0.00 | 0.06 | 0.00 | 100 | 1013.2 |
| 20260905061203 | 68 | 0 | 0.0 | 0.0 | 0.00 | 0.06 | 0.00 | 100 | 1013.2 |
| 20260905061103 | 69 | 0 | 0.0 | 0.0 | 0.00 | 0.06 | 0.00 | 100 | 1013.2 |
| 20260905061003 | 69 | 0 | 0.0 | 0.0 | 0.00 | 0.06 | 0.00 | 100 | 1013.2 |
| 20260905060703 | 69 | 0 | 0.0 | 0.0 | 0.00 | 0.06 | 0.00 | 100 | 1013.6 |
| 20260905060603 | 69 | 0 | 0.0 | 0.0 | 0.00 | 0.06 | 0.00 | 100 | 1013.2 |
| 20260905060503 | 69 | 0 | 0.0 | 0.0 | 0.00 | 0.06 | 0.00 | 100 | 1013.4 |
| 20260905060403 | 68 | 0 | 0.0 | 0.0 | 0.00 | 0.06 | 0.00 | 100 | 1013.3 |
| 20260905060303 | 69 | 0 | 0.0 | 0.0 | 0.00 | 0.06 | 0.00 | 100 | 1013.4 |
| 20260905060203 | 69 | 0 | 0.0 | 0.0 | 0.00 | 0.06 | 0.00 | 100 | 1013.5 |
| 20260905060003 | 69 | 0 | 0.0 | 2.0 | 0.00 | 0.06 | 0.00 | 100 | 1013.6 |
| 20260905055903 | 69 | 209 | 0.0 | 2.0 | 0.00 | 0.06 | 0.00 | 100 | 1013.4 |
| 20260905055803 | 69 | 209 | 0.0 | 2.0 | 0.00 | 0.06 | 0.00 | 100 | 1013.5 |
| 20260905055603 | 69 | 0 | 0.0 | 0.0 | 0.00 | 0.06 | 0.00 | 100 | 1013.5 |
| 20260905055503 | 69 | 0 | 0.0 | 0.0 | 0.00 | 0.06 | 0.00 | 100 | 1013.5 |
| 20260905055403 | 69 | 0 | 0.0 | 0.0 | 0.00 | 0.06 | 0.00 | 100 | 1013.6 |
| 20260905055306 | 69 | 0 | 0.0 | 2.0 | 0.00 | 0.06 | 0.00 | 100 | 1013.6 |
| 20260905055203 | 69 | 0 | 0.0 | 2.0 | 0.00 | 0.06 | 0.00 | 100 | 1013.6 |
| 20260905055117 | 69 | 132 | 0.0 | 2.0 | 0.00 | 0.06 | 0.00 | 100 | 1013.5 |
| 20260905055103 | 69 | 134 | 0.0 | 2.0 | 0.00 | 0.06 | 0.00 | 100 | 1013.5 |
| 20260905055018 | 69 | 142 | 0.0 | 2.0 | 0.00 | 0.07 | 0.00 | 100 | 1013.6 |
| 20260905055003 | 68 | 147 | 0.0 | 2.0 | 0.00 | 0.07 | 0.00 | 100 | 1013.6 |
| 20260905054703 | 68 | 0 | 0.0 | 0.0 | 0.00 | 0.07 | 0.00 | 100 | 1013.7 |
| 20260905054603 | 68 | 0 | 0.0 | 0.0 | 0.00 | 0.07 | 0.00 | 100 | 1013.7 |
| 20260905054503 | 68 | 0 | 0.0 | 0.0 | 0.00 | 0.08 | 0.00 | 100 | 1013.8 |
| 20260905054403 | 68 | 0 | 0.0 | 0.0 | 0.00 | 0.08 | 0.00 | 100 | 1013.6 |
| 20260905054203 | 68 | 0 | 0.0 | 0.0 | 0.00 | 0.09 | 0.00 | 100 | 1013.7 |
| 20260905054103 | 68 | 0 | 0.0 | 0.0 | 0.00 | 0.09 | 0.00 | 100 | 1013.9 |
| 20260905054003 | 69 | 0 | 0.0 | 0.0 | 0.00 | 0.09 | 0.00 | 100 | 1013.6 |
| 20260905053903 | 69 | 0 | 0.0 | 0.0 | 0.00 | 0.09 | 0.00 | 100 | 1013.8 |
| 20260905053803 | 69 | 0 | 0.0 | 2.0 | 0.00 | 0.09 | 0.00 | 100 | 1013.6 |
| 20260905053703 | 69 | 0 | 0.0 | 2.0 | 0.00 | 0.10 | 0.00 | 100 | 1013.9 |
| 20260905053603 | 69 | 179 | 0.0 | 2.0 | 0.00 | 0.10 | 0.00 | 100 | 1013.7 |
| 20260905053516 | 69 | 179 | 0.0 | 2.0 | 0.00 | 0.11 | 0.00 | 100 | 1013.6 |
| 20260905053503 | 69 | 180 | 0.0 | 2.0 | 0.00 | 0.11 | 0.00 | 100 | 1013.6 |
| 20260905053403 | 69 | 177 | 0.0 | 2.0 | 0.00 | 0.11 | 0.00 | 100 | 1013.7 |
| 20260905053203 | 69 | 201 | 0.0 | 2.0 | 0.00 | 0.16 | 0.00 | 100 | 1013.8 |
| 20260905053103 | 69 | 191 | 0.0 | 2.0 | 0.00 | 0.26 | 0.00 | 100 | 1013.9 |
| 20260905053003 | 69 | 181 | 0.0 | 5.0 | 0.00 | 0.30 | 0.00 | 100 | 1013.7 |
| 20260905052903 | 69 | 208 | 0.0 | 5.0 | 0.00 | 0.35 | 0.00 | 100 | 1013.8 |
| 20260905052817 | 69 | 204 | 0.0 | 5.0 | 0.00 | 0.38 | 0.00 | 100 | 1013.8 |
| 20260905052803 | 69 | 197 | 1.0 | 5.0 | 0.00 | 0.38 | 0.00 | 100 | 1013.8 |
| 20260905052703 | 69 | 183 | 1.0 | 5.0 | 0.00 | 0.47 | 0.00 | 100 | 1013.9 |
| 20260905052503 | 69 | 206 | 3.0 | 5.0 | 0.00 | 0.55 | 0.00 | 100 | 1013.9 |
| 20260905052417 | 69 | 211 | 3.0 | 5.0 | 0.00 | 0.57 | 0.00 | 100 | 1014.0 |
| 20260905052403 | 69 | 215 | 3.0 | 5.0 | 0.00 | 0.57 | 0.00 | 100 | 1014.0 |
| 20260905052306 | 69 | 216 | 3.0 | 5.0 | 0.00 | 0.57 | 0.00 | 100 | 1013.8 |
| 20260905052117 | 69 | 204 | 3.0 | 6.0 | 0.00 | 0.57 | 0.00 | 100 | 1014.1 |
| 20260905052103 | 69 | 204 | 4.0 | 6.0 | 0.00 | 0.57 | 0.00 | 100 | 1014.1 |
| 20260905052003 | 69 | 211 | 4.0 | 6.0 | 0.00 | 0.57 | 0.00 | 100 | 1014.0 |
| 20260905051817 | 69 | 209 | 4.0 | 6.0 | 0.00 | 0.57 | 0.00 | 100 | 1013.9 |
| 20260905051803 | 69 | 212 | 4.0 | 6.0 | 0.00 | 0.57 | 0.00 | 100 | 1013.9 |
| 20260905051703 | 69 | 202 | 4.0 | 6.0 | 0.00 | 0.57 | 0.00 | 100 | 1013.8 |
| 20260905051503 | 69 | 207 | 4.0 | 5.0 | 0.00 | 0.57 | 0.00 | 100 | 1013.9 |
| 20260905051417 | 68 | 211 | 3.0 | 5.0 | 0.00 | 0.57 | 0.00 | 100 | 1013.8 |
| 20260905051403 | 68 | 208 | 3.0 | 5.0 | 0.00 | 0.57 | 0.00 | 100 | 1013.8 |
| 20260905051303 | 68 | 229 | 3.0 | 3.0 | 0.00 | 0.57 | 0.00 | 100 | 1013.7 |
| 20260905051103 | 68 | 214 | 1.0 | 3.0 | 0.00 | 0.57 | 0.00 | 100 | 1013.8 |
| 20260905051003 | 68 | 216 | 1.0 | 3.0 | 0.00 | 0.57 | 0.00 | 100 | 1013.6 |
| 20260905050903 | 68 | 219 | 0.0 | 2.0 | 0.00 | 0.57 | 0.00 | 100 | 1013.9 |
| 20260905050803 | 68 | 198 | 1.0 | 3.0 | 0.00 | 0.57 | 0.00 | 100 | 1013.6 |
| 20260905050703 | 68 | 185 | 1.0 | 3.0 | 0.00 | 0.57 | 0.00 | 100 | 1013.7 |
| 20260905050603 | 68 | 199 | 1.0 | 3.0 | 0.00 | 0.57 | 0.00 | 100 | 1013.9 |
| 20260905050503 | 68 | 205 | 1.0 | 3.0 | 0.00 | 0.57 | 0.00 | 100 | 1013.9 |
| 20260905050403 | 68 | 191 | 1.0 | 3.0 | 0.00 | 0.57 | 0.00 | 100 | 1014.0 |
| 20260905050303 | 68 | 186 | 1.0 | 2.0 | 0.00 | 0.57 | 0.00 | 100 | 1013.9 |
| 20260905050203 | 68 | 192 | 1.0 | 3.0 | 0.00 | 0.57 | 0.00 | 100 | 1014.1 |
| 20260905050117 | 68 | 198 | 1.0 | 3.0 | 0.00 | 0.57 | 0.00 | 100 | 1013.7 |
| 20260905050003 | 69 | 222 | 0.0 | 3.0 | 0.00 | 0.57 | 0.00 | 100 | 1013.9 |
| 20260905045803 | 69 | 220 | 2.0 | 3.0 | 0.00 | 0.57 | 0.00 | 100 | 1013.9 |
| 20260905045703 | 69 | 225 | 2.0 | 3.0 | 0.00 | 0.57 | 0.00 | 100 | 1014.0 |
| 20260905045603 | 69 | 221 | 2.0 | 3.0 | 0.00 | 0.57 | 0.00 | 100 | 1013.8 |
| 20260905045503 | 69 | 210 | 2.0 | 3.0 | 0.00 | 0.57 | 0.00 | 100 | 1013.9 |
| 20260905045403 | 69 | 222 | 2.0 | 3.0 | 0.00 | 0.57 | 0.00 | 100 | 1013.8 |
| 20260905045305 | 69 | 213 | 2.0 | 3.0 | 0.00 | 0.57 | 0.00 | 100 | 1013.8 |
| 20260905045203 | 69 | 212 | 1.0 | 3.0 | 0.00 | 0.57 | 0.00 | 100 | 1013.9 |
| 20260905045017 | 69 | 220 | 2.0 | 3.0 | 0.00 | 0.57 | 0.00 | 100 | 1013.9 |
| 20260905045003 | 69 | 218 | 2.0 | 3.0 | 0.00 | 0.57 | 0.00 | 100 | 1013.9 |
| 20260905044903 | 69 | 210 | 3.0 | 3.0 | 0.00 | 0.57 | 0.00 | 100 | 1014.0 |
| 20260905044717 | 69 | 209 | 2.0 | 3.0 | 0.00 | 0.57 | 0.00 | 100 | 1013.8 |
| 20260905044703 | 69 | 208 | 2.0 | 3.0 | 0.00 | 0.57 | 0.00 | 100 | 1013.8 |
| 20260905044603 | 69 | 209 | 2.0 | 3.0 | 0.00 | 0.57 | 0.00 | 100 | 1013.8 |
| 20260905044417 | 69 | 191 | 2.0 | 2.0 | 0.00 | 0.57 | 0.00 | 100 | 1014.0 |
| 20260905044403 | 69 | 185 | 2.0 | 2.0 | 0.00 | 0.57 | 0.00 | 100 | 1014.0 |
| 20260905044303 | 69 | 185 | 2.0 | 2.0 | 0.00 | 0.57 | 0.00 | 100 | 1013.8 |
| 20260905044117 | 69 | 183 | 2.0 | 2.0 | 0.00 | 0.57 | 0.00 | 97 | 1014.0 |
| 20260905044103 | 69 | 180 | 2.0 | 2.0 | 0.00 | 0.57 | 0.00 | 97 | 1014.0 |
| 20260905044003 | 69 | 187 | 1.0 | 2.0 | 0.00 | 0.57 | 0.00 | 97 | 1013.9 |
| 20260905043803 | 69 | 210 | 1.0 | 3.0 | 0.00 | 0.57 | 0.00 | 97 | 1014.0 |
| 20260905043717 | 69 | 189 | 2.0 | 3.0 | 0.00 | 0.57 | 0.00 | 97 | 1013.8 |
| 20260905043703 | 69 | 187 | 2.0 | 3.0 | 0.00 | 0.57 | 0.00 | 97 | 1013.8 |
| 20260905043603 | 69 | 188 | 2.0 | 3.0 | 0.00 | 0.57 | 0.00 | 97 | 1013.7 |
| 20260905043403 | 68 | 195 | 2.0 | 3.0 | 0.00 | 0.57 | 0.00 | 97 | 1013.7 |
| 20260905043303 | 68 | 196 | 1.0 | 2.0 | 0.00 | 0.57 | 0.00 | 97 | 1013.8 |
| 20260905043218 | 68 | 206 | 0.0 | 2.0 | 0.00 | 0.57 | 0.00 | 97 | 1013.6 |
| 20260905043203 | 68 | 204 | 0.0 | 2.0 | 0.00 | 0.57 | 0.00 | 97 | 1013.6 |
| 20260905043103 | 68 | 210 | 0.0 | 2.0 | 0.00 | 0.57 | 0.00 | 97 | 1013.9 |
| 20260905043017 | 68 | 225 | 0.0 | 3.0 | 0.00 | 0.57 | 0.00 | 97 | 1013.8 |
| 20260905042918 | 69 | 228 | 0.0 | 3.0 | 0.00 | 0.57 | 0.00 | 97 | 1013.8 |
| 20260905042903 | 69 | 230 | 0.0 | 3.0 | 0.00 | 0.57 | 0.00 | 97 | 1013.8 |
| 20260905042816 | 69 | 225 | 1.0 | 3.0 | 0.00 | 0.57 | 0.00 | 97 | 1013.8 |
| 20260905042717 | 69 | 221 | 2.0 | 3.0 | 0.00 | 0.57 | 0.00 | 97 | 1013.8 |
| 20260905042403 | 69 | 225 | 1.0 | 2.0 | 0.00 | 0.57 | 0.00 | 96 | 1013.7 |
| 20260905042317 | 69 | 234 | 1.0 | 2.0 | 0.00 | 0.57 | 0.00 | 96 | 1013.5 |
| 20260905042306 | 69 | 231 | 1.0 | 2.0 | 0.00 | 0.57 | 0.00 | 96 | 1013.5 |
| 20260905042203 | 69 | 223 | 0.0 | 2.0 | 0.00 | 0.57 | 0.00 | 96 | 1013.7 |
| 20260905042116 | 69 | 221 | 0.0 | 2.0 | 0.00 | 0.57 | 0.00 | 96 | 1013.6 |
| 20260905042017 | 69 | 209 | 0.0 | 2.0 | 0.00 | 0.57 | 0.00 | 96 | 1013.7 |
| 20260905042003 | 69 | 203 | 0.0 | 2.0 | 0.00 | 0.57 | 0.00 | 96 | 1013.7 |
| 20260905041703 | 69 | 207 | 0.0 | 2.0 | 0.00 | 0.57 | 0.00 | 96 | 1013.6 |
| 20260905041617 | 69 | 218 | 0.0 | 2.0 | 0.00 | 0.57 | 0.00 | 96 | 1013.4 |
| 20260905041603 | 69 | 219 | 0.0 | 2.0 | 0.00 | 0.57 | 0.00 | 96 | 1013.4 |
| 20260905041503 | 69 | 214 | 0.0 | 2.0 | 0.00 | 0.57 | 0.00 | 96 | 1013.6 |
| 20260905041416 | 69 | 209 | 0.0 | 2.0 | 0.00 | 0.57 | 0.00 | 96 | 1013.5 |
| 20260905041303 | 69 | 0 | 0.0 | 2.0 | 0.00 | 0.57 | 0.00 | 96 | 1013.5 |
| 20260905041218 | 69 | 145 | 0.0 | 2.0 | 0.00 | 0.57 | 0.00 | 96 | 1013.7 |
| 20260905041103 | 69 | 145 | 0.0 | 2.0 | 0.00 | 0.57 | 0.00 | 96 | 1013.6 |
| 20260905040903 | 69 | 140 | 0.0 | 2.0 | 0.00 | 0.57 | 0.00 | 95 | 1013.4 |
| 20260905040803 | 69 | 0 | 0.0 | 2.0 | 0.00 | 0.57 | 0.00 | 95 | 1013.5 |
| 20260905040703 | 69 | 140 | 0.0 | 2.0 | 0.00 | 0.57 | 0.00 | 95 | 1013.6 |
| 20260905040503 | 70 | 0 | 0.0 | 2.0 | 0.00 | 0.57 | 0.00 | 95 | 1013.4 |
| 20260905040403 | 70 | 156 | 0.0 | 2.0 | 0.00 | 0.57 | 0.00 | 95 | 1013.4 |
| 20260905040203 | 70 | 139 | 1.0 | 2.0 | 0.00 | 0.57 | 0.00 | 95 | 1013.4 |
| 20260905040103 | 70 | 159 | 0.0 | 2.0 | 0.00 | 0.57 | 0.00 | 95 | 1013.6 |
| 20260905040017 | 70 | 179 | 0.0 | 2.0 | 0.00 | 0.57 | 0.00 | 95 | 1013.7 |
| 20260905040003 | 70 | 175 | 0.0 | 2.0 | 0.00 | 0.57 | 0.00 | 95 | 1013.7 |
| 20260905035903 | 70 | 154 | 0.0 | 2.0 | 0.00 | 0.57 | 0.57 | 95 | 1013.6 |
| 20260905035703 | 70 | 148 | 0.0 | 2.0 | 0.00 | 0.57 | 0.57 | 95 | 1013.5 |
| 20260905035603 | 70 | 150 | 0.0 | 2.0 | 0.00 | 0.57 | 0.57 | 94 | 1013.5 |
| 20260905035503 | 70 | 0 | 0.0 | 2.0 | 0.00 | 0.57 | 0.57 | 94 | 1013.4 |
| 20260905035403 | 70 | 216 | 0.0 | 2.0 | 0.00 | 0.57 | 0.57 | 94 | 1013.7 |
| 20260905035317 | 70 | 200 | 0.0 | 2.0 | 0.00 | 0.57 | 0.57 | 94 | 1013.6 |
| 20260905035306 | 70 | 187 | 0.0 | 2.0 | 0.00 | 0.57 | 0.57 | 94 | 1013.6 |
| 20260905035017 | 70 | 148 | 1.0 | 2.0 | 0.00 | 0.57 | 0.57 | 94 | 1013.4 |
| 20260905035003 | 70 | 145 | 1.0 | 2.0 | 0.00 | 0.57 | 0.57 | 94 | 1013.4 |
| 20260905034903 | 70 | 140 | 1.0 | 2.0 | 0.00 | 0.57 | 0.57 | 94 | 1013.6 |
| 20260905034603 | 70 | 0 | 0.0 | 0.0 | 0.00 | 0.57 | 0.57 | 94 | 1013.7 |
| 20260905034503 | 70 | 0 | 0.0 | 0.0 | 0.00 | 0.57 | 0.57 | 93 | 1013.7 |
| 20260905034403 | 70 | 0 | 0.0 | 0.0 | 0.00 | 0.57 | 0.57 | 93 | 1013.5 |
| 20260905034303 | 70 | 0 | 0.0 | 0.0 | 0.00 | 0.57 | 0.57 | 93 | 1013.5 |
| 20260905034203 | 70 | 0 | 0.0 | 2.0 | 0.00 | 0.57 | 0.57 | 93 | 1013.6 |
| 20260905034103 | 70 | 0 | 0.0 | 2.0 | 0.00 | 0.57 | 0.57 | 93 | 1013.7 |
| 20260905033903 | 70 | 162 | 0.0 | 4.0 | 0.00 | 0.57 | 0.57 | 93 | 1013.6 |
| 20260905033803 | 70 | 159 | 0.0 | 4.0 | 0.00 | 0.57 | 0.57 | 93 | 1013.6 |
| 20260905033703 | 70 | 173 | 1.0 | 4.0 | 0.00 | 0.57 | 0.57 | 93 | 1013.6 |
| 20260905033603 | 70 | 176 | 2.0 | 4.0 | 0.00 | 0.57 | 0.57 | 93 | 1013.5 |
| 20260905033503 | 70 | 210 | 1.0 | 3.0 | 0.00 | 0.57 | 0.57 | 93 | 1013.5 |
| 20260905033418 | 70 | 194 | 0.0 | 2.0 | 0.00 | 0.57 | 0.57 | 93 | 1013.6 |
| 20260905033403 | 70 | 190 | 0.0 | 2.0 | 0.00 | 0.57 | 0.57 | 93 | 1013.6 |
| 20260905033303 | 70 | 205 | 1.0 | 2.0 | 0.00 | 0.57 | 0.57 | 93 | 1013.3 |
| 20260905033103 | 70 | 202 | 0.0 | 2.0 | 0.00 | 0.57 | 0.57 | 93 | 1013.7 |
| 20260905033003 | 70 | 0 | 0.0 | 0.0 | 0.00 | 0.57 | 0.57 | 93 | 1013.8 |
| 20260905032903 | 70 | 0 | 0.0 | 0.0 | 0.00 | 0.57 | 0.57 | 93 | 1013.6 |
| 20260905032803 | 70 | 0 | 0.0 | 2.0 | 0.00 | 0.57 | 0.57 | 93 | 1013.7 |
| 20260905032703 | 71 | 0 | 0.0 | 3.0 | 0.00 | 0.57 | 0.57 | 92 | 1013.8 |
| 20260905032603 | 71 | 232 | 0.0 | 3.0 | 0.00 | 0.57 | 0.57 | 92 | 1013.7 |
| 20260905032503 | 71 | 232 | 0.0 | 3.0 | 0.00 | 0.57 | 0.57 | 92 | 1013.6 |
| 20260905032403 | 71 | 241 | 1.0 | 3.0 | 0.00 | 0.57 | 0.57 | 92 | 1013.7 |
| 20260905032217 | 71 | 203 | 0.0 | 2.0 | 0.00 | 0.57 | 0.57 | 92 | 1013.7 |
| 20260905032203 | 71 | 205 | 0.0 | 2.0 | 0.00 | 0.57 | 0.57 | 92 | 1013.7 |
| 20260905032118 | 71 | 211 | 0.0 | 2.0 | 0.00 | 0.57 | 0.57 | 92 | 1013.7 |
| 20260905032103 | 71 | 215 | 0.0 | 2.0 | 0.00 | 0.57 | 0.57 | 92 | 1013.7 |
| 20260905031803 | 71 | 237 | 0.0 | 2.0 | 0.00 | 0.57 | 0.57 | 91 | 1013.6 |
| 20260905031703 | 71 | 256 | 0.0 | 2.0 | 0.00 | 0.57 | 0.57 | 91 | 1013.5 |
| 20260905031603 | 71 | 284 | 0.0 | 2.0 | 0.00 | 0.57 | 0.57 | 91 | 1013.7 |
| 20260905031503 | 71 | 275 | 0.0 | 2.0 | 0.00 | 0.57 | 0.57 | 91 | 1013.6 |
| 20260905031403 | 71 | 0 | 0.0 | 0.0 | 0.00 | 0.57 | 0.57 | 91 | 1013.7 |
| 20260905031303 | 71 | 0 | 0.0 | 0.0 | 0.00 | 0.57 | 0.57 | 91 | 1013.6 |
| 20260905031203 | 71 | 0 | 0.0 | 0.0 | 0.00 | 0.57 | 0.57 | 91 | 1013.7 |
| 20260905031103 | 71 | 0 | 0.0 | 2.0 | 0.00 | 0.57 | 0.57 | 91 | 1013.5 |
| 20260905031003 | 71 | 0 | 0.0 | 2.0 | 0.00 | 0.57 | 0.57 | 91 | 1013.6 |
| 20260905030903 | 71 | 238 | 0.0 | 2.0 | 0.00 | 0.57 | 0.57 | 90 | 1013.7 |
| 20260905030716 | 71 | 259 | 1.0 | 3.0 | 0.00 | 0.57 | 0.57 | 90 | 1013.5 |
| 20260905030703 | 71 | 258 | 1.0 | 3.0 | 0.00 | 0.57 | 0.57 | 90 | 1013.5 |
| 20260905030603 | 71 | 303 | 1.0 | 3.0 | 0.00 | 0.57 | 0.57 | 90 | 1013.6 |
| 20260905030403 | 71 | 237 | 0.0 | 3.0 | 0.00 | 0.57 | 0.57 | 90 | 1013.6 |
| 20260905030317 | 71 | 232 | 2.0 | 3.0 | 0.00 | 0.57 | 0.57 | 91 | 1013.6 |
| 20260905030303 | 71 | 212 | 2.0 | 3.0 | 0.00 | 0.57 | 0.57 | 91 | 1013.6 |
| 20260905030218 | 71 | 171 | 2.0 | 3.0 | 0.00 | 0.57 | 0.57 | 91 | 1013.4 |
| 20260905030203 | 71 | 169 | 2.0 | 3.0 | 0.00 | 0.57 | 0.57 | 91 | 1013.4 |
| 20260905030118 | 71 | 184 | 2.0 | 3.0 | 0.00 | 0.57 | 0.57 | 91 | 1013.4 |
| 20260905025803 | 71 | 208 | 0.0 | 2.0 | 0.00 | 0.57 | 0.57 | 91 | 1013.7 |
| 20260905025716 | 71 | 197 | 0.0 | 2.0 | 0.00 | 0.57 | 0.57 | 91 | 1013.6 |
| 20260905025703 | 71 | 175 | 0.0 | 2.0 | 0.00 | 0.57 | 0.57 | 91 | 1013.6 |
| 20260905025603 | 71 | 144 | 0.0 | 2.0 | 0.00 | 0.57 | 0.57 | 91 | 1013.6 |
| 20260905025403 | 71 | 216 | 0.0 | 2.0 | 0.00 | 0.57 | 0.57 | 91 | 1013.6 |
| 20260905025306 | 71 | 259 | 0.0 | 2.0 | 0.00 | 0.57 | 0.57 | 91 | 1013.6 |
| 20260905025203 | 71 | 260 | 0.0 | 2.0 | 0.00 | 0.57 | 0.57 | 91 | 1013.7 |
| 20260905025103 | 71 | 237 | 0.0 | 2.0 | 0.00 | 0.57 | 0.57 | 91 | 1013.6 |
| 20260905025003 | 72 | 224 | 0.0 | 5.0 | 0.00 | 0.57 | 0.57 | 90 | 1013.6 |
| 20260905024903 | 72 | 282 | 0.0 | 5.0 | 0.00 | 0.57 | 0.57 | 90 | 1013.8 |
| 20260905024803 | 71 | 294 | 1.0 | 5.0 | 0.00 | 0.57 | 0.57 | 90 | 1013.5 |
| 20260905024716 | 71 | 281 | 2.0 | 5.0 | 0.00 | 0.57 | 0.57 | 90 | 1013.8 |
| 20260905024703 | 71 | 284 | 2.0 | 5.0 | 0.00 | 0.57 | 0.57 | 90 | 1013.8 |
| 20260905024603 | 71 | 296 | 2.0 | 5.0 | 0.00 | 0.57 | 0.57 | 90 | 1013.6 |
| 20260905024517 | 71 | 303 | 2.0 | 5.0 | 0.00 | 0.57 | 0.57 | 91 | 1013.7 |
| 20260905024418 | 71 | 275 | 1.0 | 3.0 | 0.00 | 0.57 | 0.57 | 91 | 1013.8 |
| 20260905024403 | 71 | 269 | 1.0 | 3.0 | 0.00 | 0.57 | 0.57 | 91 | 1013.8 |
| 20260905024103 | 71 | 273 | 2.0 | 4.0 | 0.00 | 0.57 | 0.57 | 91 | 1013.7 |
| 20260905024003 | 71 | 273 | 2.0 | 4.0 | 0.00 | 0.57 | 0.57 | 91 | 1013.6 |
| 20260905023903 | 71 | 280 | 2.0 | 4.0 | 0.00 | 0.57 | 0.57 | 91 | 1013.5 |
| 20260905023803 | 71 | 273 | 2.0 | 4.0 | 0.00 | 0.57 | 0.57 | 91 | 1013.5 |
| 20260905023603 | 71 | 266 | 0.0 | 2.0 | 0.00 | 0.57 | 0.57 | 91 | 1013.7 |
| 20260905023503 | 71 | 235 | 0.0 | 2.0 | 0.00 | 0.57 | 0.57 | 91 | 1013.7 |
| 20260905023403 | 71 | 225 | 0.0 | 2.0 | 0.00 | 0.57 | 0.57 | 91 | 1013.7 |
| 20260905023303 | 71 | 236 | 1.0 | 2.0 | 0.00 | 0.57 | 0.57 | 91 | 1013.7 |
| 20260905023203 | 71 | 235 | 1.0 | 2.0 | 0.00 | 0.57 | 0.57 | 91 | 1013.7 |
| 20260905023103 | 71 | 228 | 0.0 | 2.0 | 0.00 | 0.57 | 0.57 | 91 | 1013.9 |
| 20260905023003 | 71 | 218 | 0.0 | 2.0 | 0.00 | 0.57 | 0.57 | 91 | 1013.9 |
| 20260905022903 | 71 | 227 | 0.0 | 2.0 | 0.00 | 0.57 | 0.57 | 91 | 1013.8 |
| 20260905022817 | 71 | 234 | 0.0 | 2.0 | 0.00 | 0.57 | 0.57 | 91 | 1013.5 |
| 20260905022803 | 71 | 250 | 0.0 | 2.0 | 0.00 | 0.57 | 0.57 | 91 | 1013.5 |
| 20260905022703 | 71 | 259 | 0.0 | 2.0 | 0.00 | 0.57 | 0.57 | 91 | 1013.8 |
| 20260905022617 | 71 | 233 | 0.0 | 2.0 | 0.00 | 0.57 | 0.57 | 91 | 1013.6 |
| 20260905022519 | 71 | 0 | 0.0 | 2.0 | 0.00 | 0.57 | 0.57 | 91 | 1013.9 |
| 20260905022503 | 71 | 214 | 0.0 | 2.0 | 0.00 | 0.57 | 0.57 | 91 | 1013.9 |
| 20260905022203 | 71 | 233 | 1.0 | 2.0 | 0.00 | 0.57 | 0.57 | 91 | 1013.8 |
| 20260905022118 | 71 | 234 | 1.0 | 2.0 | 0.00 | 0.57 | 0.57 | 91 | 1014.0 |
| 20260905022103 | 71 | 229 | 1.0 | 2.0 | 0.00 | 0.57 | 0.57 | 91 | 1014.0 |
| 20260905022003 | 71 | 219 | 0.0 | 2.0 | 0.00 | 0.57 | 0.57 | 91 | 1013.7 |
| 20260905021803 | 71 | 228 | 0.0 | 2.0 | 0.00 | 0.57 | 0.57 | 91 | 1013.8 |
| 20260905021703 | 71 | 222 | 0.0 | 2.0 | 0.00 | 0.57 | 0.57 | 90 | 1013.9 |
| 20260905021603 | 71 | 263 | 0.0 | 2.0 | 0.00 | 0.57 | 0.57 | 90 | 1013.7 |
| 20260905021517 | 71 | 251 | 1.0 | 2.0 | 0.00 | 0.57 | 0.57 | 90 | 1013.8 |
| 20260905021503 | 71 | 258 | 1.0 | 2.0 | 0.00 | 0.57 | 0.57 | 90 | 1013.8 |
| 20260905021403 | 71 | 265 | 1.0 | 2.0 | 0.00 | 0.57 | 0.57 | 90 | 1013.8 |
| 20260905021317 | 71 | 263 | 0.0 | 2.0 | 0.00 | 0.57 | 0.57 | 90 | 1013.7 |
| 20260905021217 | 71 | 233 | 0.0 | 2.0 | 0.00 | 0.57 | 0.57 | 91 | 1013.5 |
| 20260905021203 | 71 | 228 | 0.0 | 2.0 | 0.00 | 0.57 | 0.57 | 90 | 1013.5 |
| 20260905020903 | 71 | 277 | 0.0 | 2.0 | 0.00 | 0.57 | 0.57 | 90 | 1013.9 |
| 20260905020803 | 71 | 286 | 0.0 | 2.0 | 0.00 | 0.57 | 0.57 | 90 | 1013.4 |
| 20260905020603 | 71 | 201 | 0.0 | 2.0 | 0.00 | 0.57 | 0.57 | 90 | 1013.8 |
| 20260905020503 | 71 | 201 | 0.0 | 2.0 | 0.00 | 0.57 | 0.57 | 90 | 1013.6 |
| 20260905020403 | 72 | 208 | 0.0 | 2.0 | 0.00 | 0.57 | 0.57 | 90 | 1013.8 |
| 20260905020303 | 72 | 201 | 0.0 | 2.0 | 0.00 | 0.57 | 0.57 | 90 | 1013.6 |
| 20260905020203 | 72 | 148 | 0.0 | 2.0 | 0.00 | 0.57 | 0.57 | 90 | 1013.8 |
| 20260905020103 | 72 | 146 | 0.0 | 2.0 | 0.00 | 0.57 | 0.57 | 90 | 1013.8 |
| 20260905020003 | 72 | 142 | 0.0 | 2.0 | 0.00 | 0.57 | 0.57 | 90 | 1013.9 |
| 20260905015903 | 72 | 0 | 0.0 | 2.0 | 0.00 | 0.57 | 0.57 | 89 | 1013.7 |
| 20260905015803 | 72 | 0 | 0.0 | 2.0 | 0.00 | 0.57 | 0.57 | 89 | 1013.8 |
| 20260905015703 | 72 | 306 | 0.0 | 5.0 | 0.00 | 0.57 | 0.57 | 89 | 1013.7 |
| 20260905015603 | 72 | 267 | 0.0 | 5.0 | 0.00 | 0.57 | 0.57 | 89 | 1013.6 |
| 20260905015503 | 72 | 230 | 0.0 | 5.0 | 0.00 | 0.57 | 0.57 | 90 | 1013.9 |
| 20260905015403 | 72 | 230 | 1.0 | 5.0 | 0.00 | 0.57 | 0.57 | 90 | 1013.6 |
| 20260905015306 | 72 | 233 | 1.0 | 5.0 | 0.00 | 0.57 | 0.57 | 90 | 1013.8 |
| 20260905015203 | 72 | 291 | 1.0 | 5.0 | 0.00 | 0.57 | 0.57 | 90 | 1013.7 |
| 20260905015103 | 72 | 239 | 0.0 | 2.0 | 0.00 | 0.57 | 0.57 | 90 | 1013.9 |
| 20260905015003 | 72 | 259 | 0.0 | 2.0 | 0.00 | 0.57 | 0.57 | 90 | 1013.9 |
| 20260905014917 | 72 | 267 | 0.0 | 2.0 | 0.00 | 0.57 | 0.57 | 90 | 1013.9 |
| 20260905014903 | 72 | 214 | 0.0 | 2.0 | 0.00 | 0.57 | 0.57 | 90 | 1013.9 |
| 20260905014803 | 72 | 214 | 0.0 | 2.0 | 0.00 | 0.57 | 0.57 | 90 | 1013.8 |
| 20260905014603 | 72 | 240 | 1.0 | 2.0 | 0.00 | 0.57 | 0.57 | 89 | 1013.8 |
| 20260905014503 | 72 | 218 | 1.0 | 2.0 | 0.00 | 0.57 | 0.57 | 89 | 1013.8 |
| 20260905014403 | 72 | 227 | 1.0 | 2.0 | 0.00 | 0.57 | 0.57 | 89 | 1013.9 |
| 20260905014303 | 72 | 263 | 0.0 | 2.0 | 0.00 | 0.57 | 0.57 | 89 | 1013.8 |
| 20260905014203 | 72 | 267 | 0.0 | 3.0 | 0.00 | 0.57 | 0.57 | 89 | 1013.6 |
| 20260905014103 | 72 | 0 | 0.0 | 3.0 | 0.00 | 0.57 | 0.57 | 89 | 1013.7 |
| 20260905014003 | 72 | 333 | 1.0 | 3.0 | 0.00 | 0.57 | 0.57 | 89 | 1013.6 |
| 20260905013916 | 72 | 333 | 1.0 | 3.0 | 0.00 | 0.57 | 0.57 | 89 | 1013.6 |
| 20260905013903 | 72 | 320 | 1.0 | 3.0 | 0.00 | 0.57 | 0.57 | 89 | 1013.6 |
| 20260905013803 | 72 | 246 | 1.0 | 4.0 | 0.00 | 0.57 | 0.57 | 89 | 1013.8 |
| 20260905013603 | 72 | 216 | 1.0 | 4.0 | 0.00 | 0.57 | 0.57 | 89 | 1013.7 |
| 20260905013503 | 72 | 247 | 1.0 | 4.0 | 0.00 | 0.57 | 0.57 | 88 | 1013.4 |
| 20260905013403 | 72 | 250 | 2.0 | 4.0 | 0.00 | 0.57 | 0.57 | 89 | 1013.6 |
| 20260905013303 | 72 | 273 | 1.0 | 4.0 | 0.00 | 0.57 | 0.57 | 89 | 1013.7 |
| 20260905013203 | 72 | 297 | 1.0 | 2.0 | 0.00 | 0.57 | 0.57 | 89 | 1013.7 |
| 20260905013103 | 72 | 307 | 0.0 | 2.0 | 0.00 | 0.57 | 0.57 | 89 | 1013.6 |
| 20260905013003 | 72 | 259 | 0.0 | 2.0 | 0.00 | 0.57 | 0.57 | 90 | 1013.6 |
| 20260905012916 | 72 | 276 | 0.0 | 2.0 | 0.00 | 0.57 | 0.57 | 90 | 1013.6 |
| 20260905012903 | 72 | 269 | 0.0 | 2.0 | 0.00 | 0.57 | 0.57 | 90 | 1013.6 |
| 20260905012803 | 72 | 257 | 0.0 | 2.0 | 0.00 | 0.57 | 0.57 | 90 | 1013.6 |
| 20260905012603 | 72 | 0 | 0.0 | 0.0 | 0.00 | 0.57 | 0.57 | 89 | 1013.7 |
| 20260905012503 | 72 | 0 | 0.0 | 0.0 | 0.00 | 0.57 | 0.57 | 90 | 1013.8 |
| 20260905012403 | 72 | 0 | 0.0 | 2.0 | 0.00 | 0.57 | 0.57 | 89 | 1013.7 |
| 20260905012203 | 72 | 252 | 0.0 | 2.0 | 0.00 | 0.57 | 0.57 | 89 | 1013.5 |
| 20260905012103 | 72 | 252 | 0.0 | 2.0 | 0.00 | 0.57 | 0.57 | 89 | 1013.6 |
| 20260905012003 | 72 | 250 | 0.0 | 2.0 | 0.00 | 0.57 | 0.57 | 89 | 1013.6 |
| 20260905011903 | 72 | 231 | 0.0 | 2.0 | 0.00 | 0.57 | 0.57 | 88 | 1013.6 |
| 20260905011803 | 72 | 237 | 0.0 | 2.0 | 0.00 | 0.57 | 0.57 | 88 | 1013.5 |
| 20260905011703 | 73 | 235 | 1.0 | 2.0 | 0.00 | 0.57 | 0.57 | 88 | 1013.6 |
| 20260905011603 | 73 | 248 | 1.0 | 2.0 | 0.00 | 0.57 | 0.57 | 88 | 1013.5 |
| 20260905011503 | 73 | 244 | 1.0 | 2.0 | 0.00 | 0.57 | 0.57 | 88 | 1013.5 |
| 20260905011403 | 73 | 253 | 0.0 | 2.0 | 0.00 | 0.57 | 0.57 | 88 | 1013.6 |
| 20260905011303 | 73 | 275 | 0.0 | 2.0 | 0.00 | 0.57 | 0.57 | 88 | 1013.6 |
| 20260905011203 | 73 | 287 | 1.0 | 2.0 | 0.00 | 0.57 | 0.57 | 88 | 1013.5 |
| 20260905011103 | 73 | 297 | 1.0 | 2.0 | 0.00 | 0.57 | 0.57 | 88 | 1013.5 |
| 20260905011018 | 73 | 301 | 0.0 | 2.0 | 0.00 | 0.57 | 0.57 | 88 | 1013.5 |
| 20260905011003 | 73 | 267 | 0.0 | 2.0 | 0.00 | 0.57 | 0.57 | 88 | 1013.5 |
| 20260905010903 | 73 | 289 | 0.0 | 2.0 | 0.00 | 0.57 | 0.57 | 88 | 1013.4 |
| 20260905010703 | 72 | 329 | 0.0 | 2.0 | 0.00 | 0.57 | 0.57 | 88 | 1013.6 |
| 20260905010603 | 72 | 341 | 0.0 | 2.0 | 0.00 | 0.57 | 0.57 | 88 | 1013.6 |
| 20260905010517 | 72 | 349 | 0.0 | 2.0 | 0.00 | 0.58 | 0.57 | 88 | 1013.4 |
| 20260905010503 | 72 | 346 | 0.0 | 2.0 | 0.00 | 0.58 | 0.57 | 88 | 1013.4 |
| 20260905010403 | 73 | 0 | 0.0 | 2.0 | 0.00 | 0.58 | 0.57 | 88 | 1013.3 |
| 20260905010203 | 73 | 258 | 0.0 | 2.0 | 0.00 | 0.58 | 0.57 | 88 | 1013.6 |
| 20260905010103 | 73 | 183 | 0.0 | 2.0 | 0.00 | 0.58 | 0.57 | 88 | 1013.5 |
| 20260905010003 | 73 | 179 | 0.0 | 2.0 | 0.00 | 0.59 | 0.57 | 88 | 1013.2 |
| 20260905005903 | 73 | 220 | 0.0 | 2.0 | 0.00 | 0.59 | 0.57 | 88 | 1013.6 |
| 20260905005803 | 73 | 219 | 0.0 | 2.0 | 0.00 | 0.59 | 0.57 | 88 | 1013.5 |
| 20260905005603 | 73 | 286 | 0.0 | 2.0 | 0.00 | 0.59 | 0.57 | 88 | 1013.5 |
| 20260905005503 | 73 | 0 | 0.0 | 2.0 | 0.00 | 0.59 | 0.57 | 87 | 1013.7 |
| 20260905005403 | 73 | 0 | 0.0 | 2.0 | 0.00 | 0.59 | 0.57 | 87 | 1013.5 |
| 20260905005306 | 73 | 209 | 0.0 | 2.0 | 0.00 | 0.59 | 0.57 | 87 | 1013.5 |
| 20260905005203 | 73 | 209 | 0.0 | 2.0 | 0.00 | 0.59 | 0.57 | 87 | 1013.6 |
| 20260905005103 | 74 | 233 | 0.0 | 2.0 | 0.00 | 0.60 | 0.57 | 87 | 1013.3 |
| 20260905005003 | 74 | 247 | 0.0 | 2.0 | 0.00 | 0.61 | 0.57 | 86 | 1013.6 |
| 20260905004903 | 74 | 263 | 0.0 | 2.0 | 0.00 | 0.61 | 0.57 | 86 | 1013.4 |
| 20260905004803 | 74 | 250 | 0.0 | 2.0 | 0.00 | 0.61 | 0.57 | 86 | 1013.5 |
| 20260905004703 | 74 | 274 | 0.0 | 2.0 | 0.00 | 0.61 | 0.57 | 86 | 1013.5 |
| 20260905004603 | 74 | 295 | 0.0 | 2.0 | 0.00 | 0.61 | 0.57 | 86 | 1013.5 |
| 20260905004503 | 74 | 305 | 0.0 | 2.0 | 0.00 | 0.61 | 0.57 | 86 | 1013.5 |
| 20260905004403 | 74 | 307 | 1.0 | 2.0 | 0.00 | 0.61 | 0.57 | 86 | 1013.5 |
| 20260905004305 | 74 | 285 | 1.0 | 2.0 | 0.00 | 0.62 | 0.57 | 86 | 1013.4 |
| 20260905004203 | 74 | 288 | 1.0 | 2.0 | 0.00 | 0.62 | 0.57 | 86 | 1013.5 |
| 20260905004103 | 74 | 207 | 1.0 | 2.0 | 0.00 | 0.63 | 0.57 | 86 | 1013.5 |
| 20260905004003 | 74 | 246 | 1.0 | 2.0 | 0.00 | 0.63 | 0.57 | 86 | 1013.4 |
| 20260905003903 | 74 | 321 | 1.0 | 2.0 | 0.00 | 0.64 | 0.57 | 86 | 1013.6 |
| 20260905003803 | 74 | 307 | 0.0 | 2.0 | 0.00 | 0.64 | 0.57 | 86 | 1013.4 |
| 20260905003703 | 74 | 323 | 0.0 | 3.0 | 0.00 | 0.64 | 0.57 | 86 | 1013.6 |
| 20260905003603 | 74 | 291 | 0.0 | 3.0 | 0.00 | 0.65 | 0.57 | 86 | 1013.5 |
| 20260905003503 | 74 | 244 | 0.0 | 3.0 | 0.00 | 0.66 | 0.57 | 86 | 1013.7 |
| 20260905003403 | 74 | 267 | 1.0 | 3.0 | 0.00 | 0.67 | 0.57 | 86 | 1013.7 |
| 20260905003303 | 74 | 297 | 1.0 | 3.0 | 0.00 | 0.68 | 0.57 | 86 | 1013.7 |
| 20260905003216 | 74 | 253 | 0.0 | 2.0 | 0.00 | 0.69 | 0.57 | 86 | 1013.5 |
| 20260905003203 | 74 | 250 | 0.0 | 2.0 | 0.00 | 0.69 | 0.57 | 86 | 1013.5 |
| 20260905003103 | 74 | 232 | 0.0 | 2.0 | 0.00 | 0.69 | 0.57 | 86 | 1013.6 |
| 20260905002903 | 74 | 231 | 0.0 | 2.0 | 0.00 | 0.72 | 0.57 | 86 | 1013.7 |
| 20260905002803 | 74 | 244 | 0.0 | 2.0 | 0.00 | 0.73 | 0.57 | 86 | 1013.7 |
| 20260905002703 | 74 | 0 | 0.0 | 0.0 | 0.00 | 0.75 | 0.57 | 86 | 1013.7 |
| 20260905002603 | 74 | 0 | 0.0 | 0.0 | 0.00 | 0.76 | 0.57 | 86 | 1013.6 |
| 20260905002503 | 74 | 0 | 0.0 | 2.0 | 0.00 | 0.78 | 0.57 | 86 | 1013.5 |
| 20260905002403 | 74 | 0 | 0.0 | 2.0 | 0.00 | 0.83 | 0.57 | 86 | 1013.7 |
| 20260905002203 | 74 | 140 | 0.0 | 2.0 | 0.00 | 0.88 | 0.57 | 86 | 1013.5 |
| 20260905002103 | 74 | 217 | 0.0 | 2.0 | 0.00 | 0.90 | 0.57 | 86 | 1013.6 |
| 20260905002003 | 74 | 234 | 0.0 | 2.0 | 0.00 | 0.94 | 0.57 | 85 | 1013.5 |
| 20260905001903 | 74 | 214 | 0.0 | 2.0 | 0.00 | 0.96 | 0.57 | 85 | 1013.5 |
| 20260905001803 | 74 | 244 | 0.0 | 2.0 | 0.00 | 0.97 | 0.57 | 86 | 1013.4 |
| 20260905001717 | 74 | 325 | 0.0 | 2.0 | 0.00 | 0.99 | 0.57 | 85 | 1013.7 |
| 20260905001703 | 74 | 349 | 0.0 | 2.0 | 0.00 | 0.99 | 0.57 | 85 | 1013.7 |
| 20260905001603 | 74 | 349 | 0.0 | 3.0 | 0.00 | 1.01 | 0.57 | 85 | 1013.4 |
| 20260905001403 | 75 | 12 | 0.0 | 5.0 | 0.00 | 1.02 | 0.57 | 85 | 1013.6 |
| 20260905001304 | 75 | 11 | 1.0 | 5.0 | 0.00 | 1.02 | 0.57 | 85 | 1013.5 |
| 20260905001203 | 75 | 339 | 2.0 | 5.0 | 0.00 | 1.02 | 0.57 | 84 | 1013.7 |
| 20260905001117 | 75 | 318 | 2.0 | 5.0 | 0.00 | 1.02 | 0.57 | 84 | 1013.6 |
| 20260905001103 | 75 | 336 | 2.0 | 5.0 | 0.00 | 1.02 | 0.57 | 84 | 1013.6 |
| 20260905001003 | 75 | 328 | 2.0 | 5.0 | 0.00 | 1.02 | 0.57 | 84 | 1013.7 |
| 20260905000918 | 75 | 307 | 1.0 | 4.0 | 0.00 | 1.02 | 0.57 | 84 | 1013.6 |
| 20260905000803 | 75 | 254 | 0.0 | 5.0 | 0.00 | 1.02 | 0.57 | 84 | 1013.4 |
| 20260905000717 | 75 | 271 | 0.0 | 5.0 | 0.00 | 1.02 | 0.57 | 84 | 1013.6 |
| 20260905000603 | 75 | 293 | 2.0 | 5.0 | 0.00 | 1.02 | 0.57 | 84 | 1013.6 |
| 20260905000417 | 75 | 293 | 3.0 | 6.0 | 0.00 | 1.02 | 0.57 | 83 | 1013.6 |
| 20260905000403 | 75 | 291 | 3.0 | 6.0 | 0.00 | 1.02 | 0.57 | 83 | 1013.6 |
| 20260905000303 | 75 | 319 | 3.0 | 6.0 | 0.00 | 1.02 | 0.57 | 83 | 1013.8 |
| 20260905000003 | 75 | 299 | 1.0 | 5.0 | 0.00 | 1.02 | 0.57 | 83 | 1013.4 |
| 20260904235903 | 75 | 342 | 0.0 | 3.0 | 0.00 | 1.02 | 0.57 | 84 | 1013.5 |
| 20260904235803 | 75 | 292 | 0.0 | 7.0 | 0.00 | 1.02 | 0.57 | 84 | 1013.5 |
| 20260904235703 | 75 | 244 | 1.0 | 7.0 | 0.00 | 1.02 | 0.57 | 83 | 1013.5 |
| 20260904235603 | 75 | 272 | 2.0 | 7.0 | 0.00 | 1.02 | 0.57 | 83 | 1013.4 |
| 20260904235503 | 75 | 282 | 3.0 | 7.0 | 0.00 | 1.02 | 0.57 | 82 | 1013.4 |
| 20260904235403 | 75 | 302 | 4.0 | 7.0 | 0.00 | 1.02 | 0.57 | 82 | 1013.4 |
| 20260904235306 | 76 | 303 | 3.0 | 7.0 | 0.00 | 1.02 | 0.57 | 83 | 1013.6 |
| 20260904235203 | 76 | 267 | 2.0 | 7.0 | 0.00 | 1.02 | 0.57 | 82 | 1013.5 |
| 20260904235017 | 76 | 280 | 4.0 | 7.0 | 0.00 | 1.02 | 0.57 | 82 | 1013.5 |
| 20260904235003 | 76 | 286 | 4.0 | 7.0 | 0.00 | 1.02 | 0.57 | 82 | 1013.5 |
| 20260904234903 | 76 | 303 | 4.0 | 7.0 | 0.00 | 1.02 | 0.57 | 82 | 1013.6 |
| 20260904234703 | 76 | 267 | 3.0 | 5.0 | 0.00 | 1.02 | 0.57 | 83 | 1013.5 |
| 20260904234618 | 76 | 290 | 3.0 | 5.0 | 0.00 | 1.02 | 0.57 | 83 | 1013.5 |
| 20260904234603 | 76 | 299 | 3.0 | 5.0 | 0.00 | 1.02 | 0.57 | 82 | 1013.5 |
| 20260904234503 | 76 | 289 | 3.0 | 5.0 | 0.00 | 1.02 | 0.57 | 82 | 1013.4 |
| 20260904234417 | 76 | 286 | 2.0 | 4.0 | 0.00 | 1.02 | 0.57 | 83 | 1013.5 |
| 20260904234318 | 76 | 280 | 1.0 | 2.0 | 0.00 | 1.02 | 0.57 | 84 | 1013.4 |
| 20260904234303 | 76 | 277 | 1.0 | 2.0 | 0.00 | 1.02 | 0.57 | 84 | 1013.4 |
| 20260904234218 | 76 | 260 | 1.0 | 2.0 | 0.00 | 1.02 | 0.57 | 83 | 1013.5 |
| 20260904234117 | 76 | 30 | 0.0 | 3.0 | 0.00 | 1.02 | 0.57 | 84 | 1013.5 |
| 20260904233803 | 76 | 321 | 0.0 | 3.0 | 0.00 | 1.02 | 0.57 | 83 | 1013.6 |
| 20260904233703 | 76 | 266 | 0.0 | 3.0 | 0.00 | 1.02 | 0.57 | 83 | 1013.4 |
| 20260904233603 | 76 | 224 | 1.0 | 3.0 | 0.00 | 1.02 | 0.57 | 83 | 1013.5 |
| 20260904233503 | 76 | 267 | 1.0 | 3.0 | 0.00 | 1.02 | 0.57 | 83 | 1013.2 |
| 20260904233403 | 76 | 305 | 1.0 | 3.0 | 0.00 | 1.02 | 0.57 | 82 | 1013.4 |
| 20260904233303 | 76 | 300 | 0.0 | 3.0 | 0.00 | 1.02 | 0.57 | 83 | 1013.5 |
| 20260904233203 | 76 | 0 | 0.0 | 3.0 | 0.00 | 1.02 | 0.57 | 82 | 1013.2 |
| 20260904233103 | 76 | 225 | 0.0 | 3.0 | 0.00 | 1.02 | 0.57 | 82 | 1013.4 |
| 20260904233003 | 76 | 227 | 0.0 | 3.0 | 0.00 | 1.02 | 0.57 | 82 | 1013.5 |
| 20260904232903 | 76 | 282 | 0.0 | 3.0 | 0.00 | 1.02 | 0.57 | 82 | 1013.3 |
| 20260904232803 | 76 | 284 | 1.0 | 3.0 | 0.00 | 1.02 | 0.57 | 82 | 1013.3 |
| 20260904232703 | 76 | 297 | 1.0 | 3.0 | 0.00 | 1.02 | 0.57 | 82 | 1013.5 |
| 20260904232603 | 76 | 298 | 0.0 | 2.0 | 0.00 | 1.03 | 0.57 | 82 | 1013.5 |
| 20260904232503 | 76 | 309 | 0.0 | 2.0 | 0.00 | 1.04 | 0.57 | 82 | 1013.5 |
| 20260904232403 | 76 | 295 | 0.0 | 2.0 | 0.00 | 1.05 | 0.57 | 82 | 1013.4 |
| 20260904232203 | 76 | 324 | 0.0 | 2.0 | 0.00 | 1.07 | 0.57 | 82 | 1013.5 |
| 20260904232103 | 76 | 298 | 0.0 | 2.0 | 0.00 | 1.07 | 0.57 | 83 | 1013.5 |
| 20260904232017 | 76 | 334 | 0.0 | 2.0 | 0.00 | 1.07 | 0.57 | 83 | 1013.5 |
| 20260904232003 | 76 | 6 | 0.0 | 2.0 | 0.00 | 1.07 | 0.57 | 82 | 1013.5 |
| 20260904231903 | 76 | 0 | 0.0 | 2.0 | 0.00 | 1.07 | 0.57 | 82 | 1013.3 |
| 20260904231703 | 76 | 254 | 0.0 | 2.0 | 0.00 | 1.07 | 0.57 | 82 | 1013.5 |
| 20260904231603 | 77 | 269 | 0.0 | 2.0 | 0.00 | 1.07 | 0.57 | 81 | 1013.5 |
| 20260904231503 | 77 | 251 | 0.0 | 2.0 | 0.00 | 1.07 | 0.57 | 82 | 1013.3 |
| 20260904231403 | 77 | 247 | 0.0 | 2.0 | 0.00 | 1.07 | 0.57 | 82 | 1013.5 |
| 20260904231317 | 77 | 238 | 0.0 | 2.0 | 0.00 | 1.07 | 0.57 | 81 | 1013.3 |
| 20260904231303 | 77 | 236 | 0.0 | 2.0 | 0.00 | 1.07 | 0.57 | 82 | 1013.3 |
| 20260904231203 | 77 | 239 | 0.0 | 2.0 | 0.00 | 1.07 | 0.57 | 82 | 1013.6 |
| 20260904231003 | 77 | 320 | 0.0 | 2.0 | 0.00 | 1.07 | 0.57 | 82 | 1013.4 |
| 20260904230903 | 77 | 288 | 0.0 | 2.0 | 0.00 | 1.07 | 0.57 | 81 | 1013.5 |
| 20260904230803 | 77 | 252 | 0.0 | 2.0 | 0.00 | 1.07 | 0.57 | 81 | 1013.2 |
| 20260904230703 | 77 | 238 | 0.0 | 2.0 | 0.00 | 1.07 | 0.57 | 81 | 1013.1 |
| 20260904230603 | 77 | 227 | 0.0 | 3.0 | 0.00 | 1.07 | 0.57 | 81 | 1013.2 |
| 20260904230503 | 77 | 273 | 0.0 | 3.0 | 0.00 | 1.08 | 0.57 | 80 | 1013.3 |
| 20260904230403 | 77 | 265 | 1.0 | 3.0 | 0.00 | 1.08 | 0.57 | 80 | 1013.3 |
| 20260904230317 | 77 | 282 | 1.0 | 3.0 | 0.00 | 1.08 | 0.57 | 79 | 1013.2 |
| 20260904230303 | 77 | 294 | 1.0 | 3.0 | 0.00 | 1.08 | 0.57 | 78 | 1013.2 |
| 20260904230203 | 78 | 286 | 1.0 | 3.0 | 0.00 | 1.08 | 0.57 | 78 | 1013.3 |
| 20260904230017 | 78 | 295 | 1.0 | 3.0 | 0.00 | 1.08 | 0.57 | 78 | 1013.2 |
| 20260904230003 | 78 | 4 | 0.0 | 3.0 | 0.00 | 1.08 | 0.57 | 79 | 1013.2 |
| 20260904225903 | 78 | 78 | 0.0 | 3.0 | 0.00 | 1.08 | 0.57 | 78 | 1013.2 |
| 20260904225703 | 78 | 323 | 1.0 | 3.0 | 0.00 | 1.08 | 0.57 | 78 | 1013.3 |
| 20260904225603 | 78 | 305 | 1.0 | 3.0 | 0.00 | 1.08 | 0.57 | 79 | 1013.1 |
| 20260904225503 | 78 | 309 | 0.0 | 2.0 | 0.00 | 1.08 | 0.57 | 78 | 1013.3 |
| 20260904225403 | 78 | 285 | 1.0 | 2.0 | 0.00 | 1.09 | 0.57 | 78 | 1013.3 |
| 20260904225305 | 78 | 298 | 1.0 | 2.0 | 0.00 | 1.09 | 0.57 | 77 | 1013.3 |
| 20260904225103 | 78 | 316 | 0.0 | 2.0 | 0.00 | 1.09 | 0.57 | 78 | 1013.4 |
| 20260904225003 | 78 | 0 | 0.0 | 0.0 | 0.00 | 1.09 | 0.57 | 78 | 1013.2 |
| 20260904224903 | 78 | 0 | 0.0 | 0.0 | 0.00 | 1.09 | 0.57 | 78 | 1013.2 |
| 20260904224803 | 78 | 0 | 0.0 | 0.0 | 0.00 | 1.10 | 0.57 | 79 | 1013.2 |
| 20260904224703 | 78 | 0 | 0.0 | 2.0 | 0.00 | 1.10 | 0.57 | 78 | 1013.3 |
| 20260904224603 | 78 | 0 | 0.0 | 2.0 | 0.00 | 1.11 | 0.57 | 77 | 1013.2 |
| 20260904224503 | 78 | 323 | 0.0 | 2.0 | 0.00 | 1.11 | 0.57 | 77 | 1013.2 |
| 20260904224403 | 78 | 323 | 0.0 | 2.0 | 0.00 | 1.11 | 0.57 | 77 | 1013.3 |
| 20260904224303 | 78 | 298 | 0.0 | 2.0 | 0.00 | 1.12 | 0.57 | 77 | 1013.3 |
| 20260904224203 | 78 | 283 | 0.0 | 3.0 | 0.00 | 1.13 | 0.57 | 78 | 1013.2 |
| 20260904224103 | 78 | 279 | 0.0 | 3.0 | 0.00 | 1.13 | 0.57 | 77 | 1013.4 |
| 20260904224003 | 78 | 315 | 0.0 | 3.0 | 0.00 | 1.13 | 0.57 | 77 | 1013.2 |
| 20260904223903 | 78 | 304 | 1.0 | 3.0 | 0.00 | 1.13 | 0.57 | 76 | 1013.3 |
| 20260904223803 | 78 | 303 | 2.0 | 3.0 | 0.00 | 1.13 | 0.57 | 76 | 1013.4 |
| 20260904223703 | 79 | 304 | 1.0 | 3.0 | 0.00 | 1.13 | 0.57 | 76 | 1013.3 |
| 20260904223617 | 79 | 307 | 1.0 | 3.0 | 0.00 | 1.14 | 0.57 | 75 | 1013.4 |
| 20260904223603 | 79 | 309 | 1.0 | 2.0 | 0.00 | 1.14 | 0.57 | 75 | 1013.4 |
| 20260904223303 | 79 | 311 | 0.0 | 2.0 | 0.00 | 1.15 | 0.57 | 74 | 1013.4 |
| 20260904223203 | 79 | 295 | 0.0 | 2.0 | 0.00 | 1.15 | 0.57 | 75 | 1013.3 |
| 20260904223103 | 79 | 299 | 0.0 | 2.0 | 0.00 | 1.15 | 0.57 | 75 | 1013.3 |
| 20260904223003 | 79 | 298 | 0.0 | 2.0 | 0.00 | 1.15 | 0.57 | 75 | 1013.3 |
| 20260904222917 | 79 | 284 | 0.0 | 2.0 | 0.00 | 1.15 | 0.57 | 74 | 1013.3 |
| 20260904222903 | 79 | 281 | 1.0 | 2.0 | 0.00 | 1.15 | 0.57 | 74 | 1013.3 |
| 20260904222603 | 79 | 291 | 0.0 | 2.0 | 0.00 | 1.16 | 0.57 | 72 | 1013.2 |
| 20260904222503 | 79 | 302 | 1.0 | 2.0 | 0.00 | 1.16 | 0.57 | 72 | 1013.2 |
| 20260904222416 | 80 | 289 | 1.0 | 2.0 | 0.00 | 1.16 | 0.57 | 72 | 1013.1 |
| 20260904222403 | 80 | 295 | 1.0 | 2.0 | 0.00 | 1.16 | 0.57 | 72 | 1013.1 |
| 20260904222306 | 80 | 313 | 1.0 | 2.0 | 0.00 | 1.16 | 0.57 | 72 | 1013.0 |
| 20260904222103 | 80 | 324 | 0.0 | 2.0 | 0.00 | 1.18 | 0.57 | 72 | 1013.3 |
| 20260904222003 | 80 | 344 | 0.0 | 2.0 | 0.00 | 1.18 | 0.57 | 72 | 1012.9 |
| 20260904221903 | 80 | 0 | 0.0 | 2.0 | 0.00 | 1.20 | 0.57 | 72 | 1013.2 |
| 20260904221803 | 80 | 259 | 0.0 | 2.0 | 0.00 | 1.20 | 0.57 | 71 | 1012.9 |
| 20260904221603 | 80 | 331 | 0.0 | 2.0 | 0.00 | 1.21 | 0.57 | 72 | 1013.2 |
| 20260904221503 | 80 | 317 | 0.0 | 2.0 | 0.00 | 1.22 | 0.57 | 71 | 1013.1 |
| 20260904221403 | 80 | 276 | 0.0 | 2.0 | 0.00 | 1.23 | 0.57 | 72 | 1013.1 |
| 20260904221317 | 80 | 238 | 0.0 | 2.0 | 0.00 | 1.23 | 0.57 | 71 | 1013.0 |
| 20260904221218 | 80 | 237 | 0.0 | 2.0 | 0.00 | 1.23 | 0.57 | 71 | 1013.1 |
| 20260904221203 | 80 | 238 | 0.0 | 4.0 | 0.00 | 1.23 | 0.57 | 71 | 1013.1 |
| 20260904220903 | 80 | 247 | 1.0 | 6.0 | 0.00 | 1.28 | 0.57 | 70 | 1013.3 |
| 20260904220803 | 80 | 315 | 3.0 | 6.0 | 0.00 | 1.31 | 0.57 | 70 | 1013.1 |
| 20260904220703 | 80 | 312 | 3.0 | 6.0 | 0.00 | 1.34 | 0.57 | 68 | 1013.0 |
| 20260904220603 | 80 | 305 | 2.0 | 5.0 | 0.00 | 1.37 | 0.57 | 68 | 1013.0 |
| 20260904220503 | 80 | 35 | 1.0 | 6.0 | 0.00 | 1.39 | 0.57 | 69 | 1013.3 |
| 20260904220403 | 81 | 247 | 0.0 | 6.0 | 0.00 | 1.42 | 0.57 | 67 | 1013.1 |
| 20260904220303 | 81 | 211 | 2.0 | 6.0 | 0.00 | 1.46 | 0.57 | 68 | 1012.9 |
| 20260904220218 | 81 | 245 | 3.0 | 6.0 | 0.00 | 1.52 | 0.57 | 67 | 1013.1 |
| 20260904220203 | 81 | 274 | 4.0 | 6.0 | 0.00 | 1.52 | 0.57 | 67 | 1013.1 |
| 20260904220017 | 81 | 316 | 2.0 | 4.0 | 0.00 | 1.61 | 0.57 | 67 | 1013.0 |
| 20260904215903 | 81 | 287 | 2.0 | 4.0 | 0.00 | 1.64 | 0.57 | 67 | 1013.0 |
| 20260904215818 | 81 | 261 | 2.0 | 5.0 | 0.00 | 1.67 | 0.57 | 66 | 1012.7 |
| 20260904215703 | 81 | 224 | 2.0 | 5.0 | 0.00 | 1.70 | 0.57 | 65 | 1012.7 |
| 20260904215503 | 81 | 340 | 2.0 | 5.0 | 0.00 | 1.73 | 0.57 | 67 | 1013.0 |
| 20260904215416 | 81 | 272 | 2.0 | 5.0 | 0.00 | 1.75 | 0.57 | 66 | 1013.0 |
| 20260904215403 | 81 | 241 | 2.0 | 6.0 | 0.00 | 1.75 | 0.57 | 67 | 1013.0 |
| 20260904215305 | 81 | 271 | 1.0 | 6.0 | 0.00 | 1.79 | 0.57 | 68 | 1013.1 |
| 20260904215103 | 80 | 232 | 3.0 | 7.0 | 0.00 | 1.83 | 0.57 | 68 | 1013.2 |
| 20260904215003 | 80 | 277 | 4.0 | 8.0 | 0.00 | 1.83 | 0.57 | 67 | 1013.1 |
| 20260904214903 | 80 | 234 | 3.0 | 8.0 | 0.00 | 1.83 | 0.57 | 67 | 1013.0 |
| 20260904214803 | 80 | 287 | 3.0 | 8.0 | 0.00 | 1.83 | 0.57 | 69 | 1013.1 |
| 20260904214716 | 80 | 290 | 4.0 | 8.0 | 0.00 | 1.83 | 0.57 | 68 | 1013.0 |
| 20260904214703 | 81 | 281 | 4.0 | 8.0 | 0.00 | 1.83 | 0.57 | 68 | 1013.0 |
| 20260904214603 | 81 | 259 | 3.0 | 8.0 | 0.00 | 1.83 | 0.57 | 69 | 1013.1 |
| 20260904214403 | 81 | 224 | 3.0 | 6.0 | 0.00 | 1.83 | 0.57 | 69 | 1013.0 |
| 20260904214303 | 81 | 203 | 3.0 | 6.0 | 0.00 | 1.83 | 0.57 | 69 | 1013.2 |
| 20260904214203 | 81 | 136 | 3.0 | 6.0 | 0.00 | 1.83 | 0.57 | 69 | 1013.2 |
| 20260904214103 | 81 | 348 | 2.0 | 4.0 | 0.00 | 1.83 | 0.57 | 70 | 1013.2 |
| 20260904214017 | 81 | 217 | 1.0 | 8.0 | 0.00 | 1.83 | 0.57 | 70 | 1013.1 |
| 20260904214003 | 80 | 232 | 1.0 | 8.0 | 0.00 | 1.83 | 0.57 | 70 | 1013.1 |
| 20260904213903 | 80 | 231 | 0.0 | 8.0 | 0.00 | 1.83 | 0.57 | 71 | 1013.2 |
| 20260904213703 | 80 | 201 | 3.0 | 8.0 | 0.00 | 1.83 | 0.57 | 70 | 1012.9 |
| 20260904213603 | 80 | 179 | 3.0 | 8.0 | 0.00 | 1.83 | 0.57 | 70 | 1013.3 |
| 20260904213503 | 80 | 329 | 2.0 | 7.0 | 0.00 | 1.83 | 0.57 | 70 | 1013.1 |
| 20260904213403 | 80 | 176 | 3.0 | 7.0 | 0.00 | 1.83 | 0.57 | 70 | 1013.2 |
| 20260904213303 | 80 | 246 | 3.0 | 7.0 | 0.00 | 1.83 | 0.57 | 70 | 1013.1 |
| 20260904213203 | 80 | 232 | 1.0 | 8.0 | 0.00 | 1.83 | 0.57 | 71 | 1013.1 |
| 20260904213103 | 80 | 242 | 1.0 | 9.0 | 0.00 | 1.83 | 0.57 | 70 | 1013.3 |
| 20260904213003 | 80 | 272 | 2.0 | 9.0 | 0.00 | 1.83 | 0.57 | 70 | 1013.3 |
| 20260904212903 | 80 | 275 | 4.0 | 9.0 | 0.00 | 1.83 | 0.57 | 69 | 1013.2 |
| 20260904212818 | 80 | 236 | 4.0 | 9.0 | 0.00 | 1.83 | 0.57 | 69 | 1013.2 |
| 20260904212803 | 80 | 238 | 4.0 | 9.0 | 0.00 | 1.83 | 0.57 | 69 | 1013.2 |
| 20260904212703 | 81 | 241 | 2.0 | 9.0 | 0.00 | 1.83 | 0.57 | 69 | 1013.2 |
| 20260904212517 | 81 | 117 | 1.0 | 5.0 | 0.00 | 1.83 | 0.57 | 70 | 1013.2 |
| 20260904212503 | 81 | 93 | 1.0 | 5.0 | 0.00 | 1.83 | 0.57 | 70 | 1013.2 |
| 20260904212403 | 81 | 1 | 1.0 | 5.0 | 0.00 | 1.83 | 0.57 | 70 | 1013.2 |
| 20260904212203 | 81 | 315 | 3.0 | 6.0 | 0.00 | 1.83 | 0.57 | 69 | 1013.1 |
| 20260904212103 | 81 | 328 | 3.0 | 7.0 | 0.00 | 1.83 | 0.57 | 71 | 1013.1 |
| 20260904212003 | 81 | 309 | 3.0 | 7.0 | 0.00 | 1.83 | 0.57 | 70 | 1013.1 |
| 20260904211903 | 81 | 310 | 3.0 | 7.0 | 0.00 | 1.83 | 0.57 | 70 | 1012.9 |
| 20260904211803 | 81 | 308 | 4.0 | 7.0 | 0.00 | 1.83 | 0.57 | 70 | 1013.0 |
| 20260904211703 | 81 | 324 | 4.0 | 7.0 | 0.00 | 1.83 | 0.57 | 68 | 1013.2 |
| 20260904211603 | 82 | 312 | 2.0 | 5.0 | 0.00 | 1.83 | 0.57 | 69 | 1013.0 |
| 20260904211503 | 82 | 327 | 2.0 | 5.0 | 0.00 | 1.83 | 0.57 | 67 | 1012.9 |
| 20260904211403 | 82 | 327 | 2.0 | 5.0 | 0.00 | 1.83 | 0.57 | 67 | 1013.0 |
| 20260904211303 | 82 | 295 | 1.0 | 5.0 | 0.00 | 1.83 | 0.57 | 67 | 1013.1 |
| 20260904211203 | 82 | 299 | 1.0 | 5.0 | 0.00 | 1.83 | 0.57 | 66 | 1013.1 |
| 20260904211118 | 82 | 235 | 0.0 | 2.0 | 0.00 | 1.83 | 0.57 | 68 | 1012.9 |
| 20260904211103 | 82 | 234 | 0.0 | 2.0 | 0.00 | 1.83 | 0.57 | 68 | 1012.9 |
| 20260904211003 | 82 | 122 | 0.0 | 3.0 | 0.00 | 1.83 | 0.57 | 67 | 1013.1 |
| 20260904210803 | 82 | 252 | 0.0 | 3.0 | 0.00 | 1.83 | 0.57 | 68 | 1013.2 |
| 20260904210703 | 82 | 60 | 1.0 | 3.0 | 0.00 | 1.83 | 0.57 | 68 | 1013.2 |
| 20260904210603 | 82 | 107 | 2.0 | 3.0 | 0.00 | 1.83 | 0.57 | 67 | 1012.9 |
| 20260904210503 | 82 | 134 | 1.0 | 10.0 | 0.00 | 1.83 | 0.57 | 67 | 1013.0 |
| 20260904210403 | 81 | 193 | 0.0 | 10.0 | 0.00 | 1.83 | 0.57 | 68 | 1013.0 |
| 20260904210303 | 81 | 229 | 0.0 | 10.0 | 0.00 | 1.83 | 0.57 | 68 | 1013.2 |
| 20260904210203 | 81 | 275 | 2.0 | 10.0 | 0.00 | 1.83 | 0.57 | 69 | 1012.9 |
| 20260904210003 | 81 | 313 | 5.0 | 10.0 | 0.00 | 1.83 | 0.57 | 68 | 1013.0 |
| 20260904205903 | 81 | 315 | 3.0 | 8.0 | 0.00 | 1.83 | 0.57 | 69 | 1013.1 |
| 20260904205803 | 81 | 312 | 4.0 | 8.0 | 0.00 | 1.83 | 0.57 | 69 | 1013.0 |
| 20260904205703 | 81 | 301 | 4.0 | 10.0 | 0.00 | 1.83 | 0.57 | 68 | 1012.9 |
| 20260904205603 | 81 | 303 | 5.0 | 10.0 | 0.00 | 1.83 | 0.57 | 68 | 1013.0 |
| 20260904205503 | 81 | 311 | 6.0 | 10.0 | 0.00 | 1.83 | 0.57 | 67 | 1013.1 |
| 20260904205403 | 81 | 308 | 6.0 | 10.0 | 0.00 | 1.83 | 0.57 | 67 | 1013.3 |
| 20260904205305 | 82 | 299 | 5.0 | 10.0 | 0.00 | 1.83 | 0.57 | 65 | 1013.2 |
| 20260904205203 | 82 | 305 | 4.0 | 10.0 | 0.00 | 1.83 | 0.57 | 67 | 1013.2 |
| 20260904205103 | 82 | 308 | 2.0 | 5.0 | 0.00 | 1.83 | 0.57 | 68 | 1013.1 |
| 20260904205003 | 81 | 290 | 2.0 | 5.0 | 0.00 | 1.83 | 0.57 | 68 | 1013.2 |
| 20260904204903 | 81 | 324 | 2.0 | 6.0 | 0.00 | 1.83 | 0.57 | 70 | 1012.9 |
| 20260904204803 | 81 | 344 | 2.0 | 7.0 | 0.00 | 1.83 | 0.57 | 70 | 1013.0 |
| 20260904204703 | 80 | 341 | 2.0 | 8.0 | 0.00 | 1.83 | 0.57 | 72 | 1013.2 |
| 20260904204603 | 80 | 332 | 4.0 | 8.0 | 0.00 | 1.83 | 0.57 | 71 | 1013.2 |
| 20260904204503 | 80 | 316 | 5.0 | 8.0 | 0.00 | 1.83 | 0.57 | 69 | 1013.4 |
| 20260904204418 | 80 | 301 | 5.0 | 8.0 | 0.00 | 1.83 | 0.57 | 69 | 1013.3 |
| 20260904204403 | 80 | 291 | 5.0 | 8.0 | 0.00 | 1.83 | 0.57 | 69 | 1013.3 |
| 20260904204303 | 80 | 289 | 4.0 | 8.0 | 0.00 | 1.83 | 0.57 | 68 | 1013.4 |
| 20260904204217 | 80 | 312 | 3.0 | 7.0 | 0.00 | 1.83 | 0.57 | 69 | 1013.3 |
| 20260904204103 | 80 | 198 | 2.0 | 10.0 | 0.00 | 1.83 | 0.57 | 71 | 1013.3 |
| 20260904203903 | 80 | 249 | 4.0 | 10.0 | 0.00 | 1.83 | 0.57 | 69 | 1013.4 |
| 20260904203803 | 80 | 253 | 5.0 | 10.0 | 0.00 | 1.83 | 0.57 | 69 | 1013.6 |
| 20260904203703 | 80 | 294 | 4.0 | 10.0 | 0.00 | 1.83 | 0.57 | 68 | 1013.7 |
| 20260904203603 | 80 | 298 | 4.0 | 10.0 | 0.00 | 1.83 | 0.57 | 70 | 1013.6 |
| 20260904203503 | 80 | 292 | 4.0 | 10.0 | 0.00 | 1.83 | 0.57 | 69 | 1013.5 |
| 20260904203403 | 81 | 298 | 5.0 | 10.0 | 0.00 | 1.83 | 0.57 | 68 | 1013.8 |
| 20260904203303 | 81 | 288 | 4.0 | 10.0 | 0.00 | 1.83 | 0.57 | 69 | 1013.7 |
| 20260904203203 | 81 | 304 | 2.0 | 10.0 | 0.00 | 1.83 | 0.57 | 66 | 1013.7 |
| 20260904203003 | 81 | 269 | 3.0 | 9.0 | 0.00 | 1.83 | 0.57 | 70 | 1013.9 |
| 20260904202903 | 81 | 302 | 4.0 | 9.0 | 0.00 | 1.83 | 0.57 | 69 | 1013.8 |
| 20260904202803 | 81 | 286 | 4.0 | 9.0 | 0.00 | 1.83 | 0.57 | 69 | 1013.7 |
| 20260904202703 | 81 | 299 | 5.0 | 9.0 | 0.00 | 1.83 | 0.57 | 69 | 1013.7 |
| 20260904202603 | 81 | 312 | 3.0 | 9.0 | 0.00 | 1.83 | 0.57 | 69 | 1013.6 |
| 20260904202503 | 80 | 317 | 2.0 | 6.0 | 0.00 | 1.83 | 0.57 | 74 | 1013.8 |
| 20260904202403 | 80 | 293 | 2.0 | 6.0 | 0.00 | 1.83 | 0.57 | 73 | 1013.6 |
| 20260904202305 | 80 | 353 | 2.0 | 6.0 | 0.00 | 1.83 | 0.57 | 75 | 1013.6 |
| 20260904202203 | 80 | 15 | 2.0 | 6.0 | 0.00 | 1.83 | 0.57 | 73 | 1013.6 |
| 20260904202103 | 80 | 249 | 3.0 | 6.0 | 0.00 | 1.83 | 0.57 | 73 | 1014.0 |
| 20260904202003 | 80 | 295 | 4.0 | 6.0 | 0.00 | 1.83 | 0.57 | 72 | 1013.8 |
| 20260904201903 | 80 | 308 | 2.0 | 6.0 | 0.00 | 1.83 | 0.57 | 73 | 1013.7 |
| 20260904201803 | 80 | 310 | 1.0 | 6.0 | 0.00 | 1.83 | 0.57 | 74 | 1013.7 |
| 20260904201703 | 80 | 287 | 3.0 | 9.0 | 0.00 | 1.83 | 0.57 | 73 | 1013.9 |
| 20260904201603 | 80 | 293 | 4.0 | 9.0 | 0.00 | 1.83 | 0.57 | 72 | 1013.8 |
| 20260904201503 | 80 | 305 | 5.0 | 9.0 | 0.00 | 1.83 | 0.57 | 72 | 1013.7 |
| 20260904201403 | 80 | 303 | 5.0 | 9.0 | 0.00 | 1.83 | 0.57 | 72 | 1013.7 |
| 20260904201303 | 80 | 301 | 4.0 | 9.0 | 0.00 | 1.83 | 0.57 | 71 | 1013.5 |
| 20260904201203 | 80 | 25 | 1.0 | 7.0 | 0.00 | 1.83 | 0.57 | 72 | 1013.7 |
| 20260904201103 | 80 | 311 | 1.0 | 7.0 | 0.00 | 1.83 | 0.57 | 74 | 1013.6 |
| 20260904201003 | 80 | 273 | 2.0 | 7.0 | 0.00 | 1.83 | 0.57 | 72 | 1013.5 |
| 20260904200903 | 80 | 282 | 4.0 | 7.0 | 0.00 | 1.83 | 0.57 | 71 | 1013.4 |
| 20260904200803 | 80 | 291 | 5.0 | 6.0 | 0.00 | 1.83 | 0.57 | 71 | 1013.4 |
| 20260904200703 | 80 | 304 | 5.0 | 6.0 | 0.00 | 1.83 | 0.57 | 73 | 1013.2 |
| 20260904200603 | 80 | 317 | 4.0 | 6.0 | 0.00 | 1.83 | 0.57 | 73 | 1013.2 |
| 20260904200503 | 80 | 306 | 2.0 | 6.0 | 0.00 | 1.83 | 0.57 | 72 | 1013.3 |
| 20260904200418 | 79 | 344 | 3.0 | 6.0 | 0.00 | 1.83 | 0.57 | 75 | 1013.2 |
| 20260904200403 | 79 | 350 | 3.0 | 6.0 | 0.00 | 1.83 | 0.57 | 76 | 1013.2 |
| 20260904200217 | 79 | 287 | 3.0 | 6.0 | 0.00 | 1.83 | 0.57 | 73 | 1013.3 |
| 20260904200018 | 80 | 316 | 3.0 | 6.0 | 0.00 | 1.83 | 0.57 | 74 | 1013.4 |
| 20260904195903 | 80 | 350 | 2.0 | 5.0 | 0.00 | 1.83 | 0.57 | 74 | 1013.2 |
| 20260904195703 | 79 | 49 | 3.0 | 5.0 | 0.00 | 1.83 | 0.57 | 75 | 1013.1 |
| 20260904195603 | 79 | 62 | 2.0 | 5.0 | 0.00 | 1.83 | 0.57 | 74 | 1013.1 |
| 20260904195503 | 80 | 104 | 2.0 | 6.0 | 0.00 | 1.83 | 0.57 | 73 | 1013.1 |
| 20260904195403 | 80 | 110 | 4.0 | 6.0 | 0.00 | 1.83 | 0.57 | 72 | 1013.4 |
| 20260904195318 | 80 | 114 | 4.0 | 6.0 | 0.00 | 1.83 | 0.57 | 72 | 1013.2 |
| 20260904195305 | 80 | 110 | 4.0 | 6.0 | 0.00 | 1.83 | 0.57 | 72 | 1013.2 |
| 20260904195203 | 80 | 114 | 4.0 | 6.0 | 0.00 | 1.83 | 0.57 | 72 | 1013.1 |
| 20260904195003 | 80 | 57 | 3.0 | 5.0 | 0.00 | 1.83 | 0.57 | 73 | 1013.6 |
| 20260904194903 | 80 | 355 | 2.0 | 7.0 | 0.00 | 1.83 | 0.57 | 71 | 1013.6 |
| 20260904194803 | 80 | 27 | 2.0 | 7.0 | 0.00 | 1.83 | 0.57 | 71 | 1013.4 |
| 20260904194703 | 80 | 20 | 2.0 | 7.0 | 0.00 | 1.83 | 0.57 | 72 | 1013.5 |
| 20260904194616 | 80 | 268 | 2.0 | 7.0 | 0.00 | 1.83 | 0.57 | 74 | 1013.6 |
| 20260904194503 | 80 | 67 | 3.0 | 7.0 | 0.00 | 1.83 | 0.57 | 74 | 1013.8 |
| 20260904194303 | 80 | 124 | 3.0 | 9.0 | 0.00 | 1.83 | 0.57 | 75 | 1013.8 |
| 20260904194216 | 80 | 355 | 2.0 | 9.0 | 0.00 | 1.83 | 0.57 | 76 | 1013.9 |
| 20260904194203 | 80 | 292 | 3.0 | 9.0 | 0.00 | 1.83 | 0.57 | 76 | 1013.9 |
| 20260904194103 | 80 | 287 | 4.0 | 9.0 | 0.00 | 1.83 | 0.57 | 74 | 1013.8 |
| 20260904193903 | 80 | 292 | 5.0 | 11.0 | 0.00 | 1.83 | 0.57 | 74 | 1014.1 |
| 20260904193817 | 80 | 292 | 6.0 | 11.0 | 0.00 | 1.83 | 0.57 | 73 | 1014.1 |
| 20260904193803 | 80 | 287 | 6.0 | 11.0 | 0.00 | 1.83 | 0.57 | 73 | 1014.1 |
| 20260904193703 | 80 | 298 | 6.0 | 11.0 | 0.00 | 1.83 | 0.57 | 74 | 1014.0 |
| 20260904193503 | 80 | 310 | 5.0 | 9.0 | 0.00 | 1.83 | 0.57 | 73 | 1014.0 |
| 20260904193417 | 80 | 290 | 3.0 | 9.0 | 0.00 | 1.83 | 0.57 | 72 | 1014.2 |
| 20260904193403 | 80 | 300 | 3.0 | 9.0 | 0.00 | 1.83 | 0.57 | 74 | 1014.2 |
| 20260904193303 | 80 | 293 | 2.0 | 9.0 | 0.00 | 1.83 | 0.57 | 75 | 1014.3 |
| 20260904193103 | 80 | 295 | 4.0 | 14.0 | 0.00 | 1.83 | 0.57 | 75 | 1014.3 |
| 20260904193018 | 80 | 300 | 4.0 | 14.0 | 0.00 | 1.83 | 0.57 | 74 | 1014.3 |
| 20260904193003 | 80 | 309 | 4.0 | 14.0 | 0.00 | 1.83 | 0.57 | 75 | 1014.3 |
| 20260904192903 | 80 | 301 | 6.0 | 14.0 | 0.00 | 1.83 | 0.57 | 75 | 1014.4 |
| 20260904192703 | 80 | 318 | 7.0 | 14.0 | 0.00 | 1.83 | 0.57 | 73 | 1014.3 |
| 20260904192603 | 80 | 285 | 8.0 | 14.0 | 0.00 | 1.83 | 0.57 | 71 | 1014.5 |
| 20260904192503 | 81 | 297 | 5.0 | 13.0 | 0.00 | 1.83 | 0.57 | 71 | 1014.4 |
| 20260904192403 | 81 | 306 | 5.0 | 10.0 | 0.00 | 1.83 | 0.57 | 73 | 1014.5 |
| 20260904192306 | 81 | 301 | 6.0 | 10.0 | 0.00 | 1.83 | 0.57 | 73 | 1014.6 |
| 20260904192203 | 81 | 307 | 5.0 | 11.0 | 0.00 | 1.83 | 0.57 | 74 | 1014.6 |
| 20260904192103 | 81 | 313 | 3.0 | 11.0 | 0.00 | 1.83 | 0.57 | 74 | 1014.7 |
| 20260904192003 | 81 | 39 | 4.0 | 11.0 | 0.00 | 1.83 | 0.57 | 74 | 1014.8 |
| 20260904191903 | 81 | 262 | 5.0 | 11.0 | 0.00 | 1.83 | 0.57 | 72 | 1014.8 |
| 20260904191803 | 82 | 286 | 5.0 | 11.0 | 0.00 | 1.83 | 0.57 | 72 | 1014.8 |
| 20260904191703 | 82 | 317 | 5.0 | 12.0 | 0.00 | 1.83 | 0.57 | 73 | 1014.9 |
| 20260904191603 | 81 | 230 | 4.0 | 12.0 | 0.00 | 1.83 | 0.57 | 74 | 1014.9 |
| 20260904191517 | 81 | 212 | 6.0 | 12.0 | 0.00 | 1.83 | 0.57 | 73 | 1014.8 |
| 20260904191503 | 81 | 240 | 5.0 | 12.0 | 0.00 | 1.83 | 0.57 | 74 | 1014.8 |
| 20260904191403 | 81 | 287 | 5.0 | 12.0 | 0.00 | 1.83 | 0.57 | 73 | 1014.9 |
| 20260904191203 | 81 | 307 | 3.0 | 8.0 | 0.00 | 1.83 | 0.57 | 74 | 1014.8 |
| 20260904191103 | 81 | 256 | 3.0 | 6.0 | 0.00 | 1.83 | 0.57 | 73 | 1014.9 |
| 20260904191003 | 81 | 187 | 3.0 | 6.0 | 0.00 | 1.83 | 0.57 | 75 | 1014.8 |
| 20260904190903 | 81 | 309 | 2.0 | 6.0 | 0.00 | 1.83 | 0.57 | 74 | 1014.8 |
| 20260904190803 | 81 | 246 | 2.0 | 9.0 | 0.00 | 1.83 | 0.57 | 77 | 1014.8 |
| 20260904190703 | 80 | 297 | 2.0 | 9.0 | 0.00 | 1.83 | 0.57 | 75 | 1014.9 |
| 20260904190603 | 80 | 304 | 2.0 | 9.0 | 0.00 | 1.83 | 0.57 | 75 | 1014.8 |
| 20260904190503 | 80 | 300 | 3.0 | 9.0 | 0.00 | 1.83 | 0.57 | 74 | 1015.0 |
| 20260904190417 | 81 | 297 | 5.0 | 9.0 | 0.00 | 1.83 | 0.57 | 75 | 1015.2 |
| 20260904190403 | 81 | 303 | 5.0 | 9.0 | 0.00 | 1.83 | 0.57 | 74 | 1015.2 |
| 20260904190303 | 81 | 298 | 3.0 | 8.0 | 0.00 | 1.83 | 0.57 | 73 | 1014.9 |
| 20260904190003 | 81 | 266 | 4.0 | 7.0 | 0.00 | 1.83 | 0.57 | 74 | 1014.8 |
| 20260904185903 | 81 | 231 | 4.0 | 7.0 | 0.00 | 1.83 | 0.57 | 75 | 1014.8 |
| 20260904185803 | 81 | 342 | 3.0 | 10.0 | 0.00 | 1.83 | 0.57 | 75 | 1014.9 |
| 20260904185703 | 80 | 324 | 4.0 | 10.0 | 0.00 | 1.83 | 0.57 | 73 | 1014.9 |
| 20260904185618 | 80 | 329 | 4.0 | 10.0 | 0.00 | 1.83 | 0.57 | 74 | 1014.8 |
| 20260904185603 | 80 | 323 | 4.0 | 10.0 | 0.00 | 1.83 | 0.57 | 76 | 1014.8 |
| 20260904185503 | 80 | 297 | 4.0 | 10.0 | 0.00 | 1.83 | 0.57 | 74 | 1014.8 |
| 20260904185306 | 81 | 256 | 4.0 | 11.0 | 0.00 | 1.83 | 0.57 | 74 | 1014.8 |
| 20260904185203 | 81 | 303 | 5.0 | 11.0 | 0.00 | 1.83 | 0.57 | 74 | 1014.8 |
| 20260904185103 | 81 | 280 | 5.0 | 11.0 | 0.00 | 1.83 | 0.57 | 73 | 1014.8 |
| 20260904185003 | 81 | 252 | 6.0 | 11.0 | 0.00 | 1.83 | 0.57 | 74 | 1014.7 |
| 20260904184918 | 81 | 297 | 6.0 | 11.0 | 0.00 | 1.83 | 0.57 | 73 | 1014.6 |
| 20260904184903 | 81 | 304 | 6.0 | 11.0 | 0.00 | 1.83 | 0.57 | 74 | 1014.6 |
| 20260904184803 | 81 | 314 | 4.0 | 11.0 | 0.00 | 1.83 | 0.57 | 71 | 1014.6 |
| 20260904184603 | 81 | 273 | 5.0 | 10.0 | 0.00 | 1.83 | 0.57 | 74 | 1014.8 |
| 20260904184503 | 81 | 284 | 6.0 | 10.0 | 0.00 | 1.83 | 0.57 | 73 | 1014.8 |
| 20260904184403 | 81 | 299 | 6.0 | 10.0 | 0.00 | 1.83 | 0.57 | 73 | 1014.8 |
| 20260904184303 | 82 | 298 | 6.0 | 9.0 | 0.00 | 1.83 | 0.57 | 70 | 1014.8 |
| 20260904184203 | 82 | 309 | 5.0 | 9.0 | 0.00 | 1.83 | 0.57 | 71 | 1014.8 |
| 20260904184103 | 82 | 284 | 5.0 | 10.0 | 0.00 | 1.83 | 0.57 | 71 | 1014.8 |
| 20260904184003 | 82 | 293 | 4.0 | 10.0 | 0.00 | 1.83 | 0.57 | 70 | 1015.0 |
| 20260904183918 | 82 | 276 | 3.0 | 10.0 | 0.00 | 1.83 | 0.57 | 72 | 1014.8 |
| 20260904183903 | 82 | 290 | 3.0 | 10.0 | 0.00 | 1.83 | 0.57 | 73 | 1014.8 |
| 20260904183817 | 82 | 256 | 3.0 | 12.0 | 0.00 | 1.83 | 0.57 | 73 | 1014.9 |
| 20260904183503 | 82 | 305 | 5.0 | 12.0 | 0.00 | 1.83 | 0.57 | 73 | 1014.7 |
| 20260904183417 | 82 | 313 | 6.0 | 12.0 | 0.00 | 1.83 | 0.57 | 71 | 1014.7 |
| 20260904183403 | 82 | 320 | 6.0 | 12.0 | 0.00 | 1.83 | 0.57 | 71 | 1014.7 |
| 20260904183303 | 82 | 314 | 4.0 | 10.0 | 0.00 | 1.83 | 0.57 | 73 | 1015.0 |
| 20260904183103 | 82 | 29 | 4.0 | 7.0 | 0.00 | 1.83 | 0.57 | 75 | 1014.8 |
| 20260904183003 | 82 | 304 | 4.0 | 7.0 | 0.00 | 1.83 | 0.57 | 72 | 1015.0 |
| 20260904182903 | 82 | 293 | 3.0 | 6.0 | 0.00 | 1.83 | 0.57 | 75 | 1014.9 |
| 20260904182803 | 82 | 307 | 2.0 | 6.0 | 0.00 | 1.83 | 0.57 | 75 | 1014.8 |
| 20260904182703 | 81 | 315 | 2.0 | 6.0 | 0.00 | 1.83 | 0.57 | 74 | 1014.9 |
| 20260904182603 | 81 | 357 | 3.0 | 6.0 | 0.00 | 1.83 | 0.57 | 74 | 1014.7 |
| 20260904182503 | 82 | 321 | 3.0 | 6.0 | 0.00 | 1.83 | 0.57 | 74 | 1015.0 |
| 20260904182403 | 82 | 294 | 3.0 | 5.0 | 0.00 | 1.83 | 0.57 | 74 | 1015.0 |
| 20260904182203 | 82 | 271 | 3.0 | 6.0 | 0.00 | 1.83 | 0.57 | 75 | 1014.9 |
| 20260904182103 | 82 | 260 | 3.0 | 6.0 | 0.00 | 1.83 | 0.57 | 77 | 1014.8 |
| 20260904182003 | 81 | 287 | 4.0 | 6.0 | 0.00 | 1.83 | 0.57 | 74 | 1014.8 |
| 20260904181918 | 81 | 298 | 4.0 | 6.0 | 0.00 | 1.83 | 0.57 | 74 | 1014.8 |
| 20260904181903 | 81 | 304 | 4.0 | 6.0 | 0.00 | 1.83 | 0.57 | 74 | 1014.8 |
| 20260904181803 | 81 | 304 | 3.0 | 6.0 | 0.00 | 1.83 | 0.57 | 77 | 1015.0 |
| 20260904181603 | 80 | 345 | 3.0 | 8.0 | 0.00 | 1.83 | 0.57 | 78 | 1014.9 |
| 20260904181516 | 80 | 21 | 4.0 | 10.0 | 0.00 | 1.83 | 0.57 | 78 | 1014.6 |
| 20260904181503 | 80 | 30 | 4.0 | 11.0 | 0.00 | 1.83 | 0.57 | 79 | 1014.6 |
| 20260904181403 | 80 | 3 | 5.0 | 11.0 | 0.00 | 1.83 | 0.57 | 78 | 1014.8 |
| 20260904181203 | 80 | 356 | 7.0 | 11.0 | 0.00 | 1.83 | 0.57 | 77 | 1014.7 |
| 20260904181103 | 80 | 328 | 7.0 | 11.0 | 0.00 | 1.83 | 0.57 | 76 | 1014.8 |
| 20260904181003 | 81 | 326 | 5.0 | 10.0 | 0.00 | 1.83 | 0.57 | 76 | 1014.8 |
| 20260904180903 | 81 | 292 | 3.0 | 10.0 | 0.00 | 1.83 | 0.57 | 77 | 1014.7 |
| 20260904180803 | 80 | 295 | 3.0 | 10.0 | 0.00 | 1.83 | 0.57 | 80 | 1014.9 |
| 20260904180703 | 80 | 295 | 4.0 | 10.0 | 0.00 | 1.83 | 0.57 | 80 | 1014.5 |
| 20260904180603 | 80 | 322 | 5.0 | 10.0 | 0.00 | 1.83 | 0.57 | 77 | 1014.6 |
| 20260904180503 | 80 | 324 | 4.0 | 8.0 | 0.00 | 1.83 | 0.57 | 79 | 1014.8 |
| 20260904180403 | 80 | 314 | 3.0 | 8.0 | 0.00 | 1.83 | 0.57 | 78 | 1014.6 |
| 20260904180303 | 80 | 264 | 3.0 | 8.0 | 0.00 | 1.83 | 0.57 | 81 | 1014.8 |
| 20260904180205 | 79 | 285 | 2.0 | 8.0 | 0.00 | 1.83 | 0.57 | 80 | 1014.7 |
| 20260904180003 | 79 | 320 | 3.0 | 7.0 | 0.00 | 1.83 | 0.57 | 81 | 1014.6 |
| 20260904175903 | 79 | 345 | 4.0 | 7.0 | 0.00 | 1.83 | 0.57 | 81 | 1014.8 |
| 20260904175803 | 79 | 47 | 5.0 | 7.0 | 0.00 | 1.83 | 0.57 | 80 | 1014.6 |
| 20260904175703 | 79 | 8 | 4.0 | 7.0 | 0.00 | 1.83 | 0.57 | 78 | 1014.8 |
| 20260904175603 | 79 | 4 | 3.0 | 6.0 | 0.00 | 1.83 | 0.57 | 79 | 1014.8 |
| 20260904175503 | 79 | 309 | 3.0 | 5.0 | 0.00 | 1.83 | 0.57 | 81 | 1014.9 |
| 20260904175403 | 78 | 335 | 3.0 | 8.0 | 0.00 | 1.83 | 0.57 | 80 | 1014.7 |
| 20260904175305 | 78 | 320 | 3.0 | 8.0 | 0.00 | 1.83 | 0.57 | 83 | 1014.7 |
| 20260904175203 | 78 | 303 | 4.0 | 8.0 | 0.00 | 1.83 | 0.57 | 81 | 1014.7 |
| 20260904175103 | 78 | 321 | 5.0 | 8.0 | 0.00 | 1.83 | 0.57 | 80 | 1014.8 |
| 20260904175003 | 79 | 301 | 5.0 | 8.0 | 0.00 | 1.83 | 0.57 | 79 | 1014.8 |
| 20260904174903 | 79 | 315 | 4.0 | 8.0 | 0.00 | 1.83 | 0.57 | 80 | 1014.8 |
| 20260904174803 | 79 | 21 | 4.0 | 8.0 | 0.00 | 1.83 | 0.57 | 78 | 1014.7 |
| 20260904174703 | 79 | 346 | 5.0 | 8.0 | 0.00 | 1.83 | 0.57 | 78 | 1014.8 |
| 20260904174603 | 79 | 339 | 4.0 | 8.0 | 0.00 | 1.83 | 0.57 | 78 | 1014.9 |
| 20260904174503 | 79 | 300 | 2.0 | 8.0 | 0.00 | 1.83 | 0.57 | 84 | 1014.7 |
| 20260904174403 | 79 | 292 | 3.0 | 8.0 | 0.00 | 1.83 | 0.57 | 86 | 1014.9 |
| 20260904174303 | 78 | 82 | 3.0 | 8.0 | 0.00 | 1.83 | 0.57 | 84 | 1014.9 |
| 20260904174203 | 78 | 110 | 4.0 | 8.0 | 0.00 | 1.83 | 0.57 | 81 | 1015.0 |
| 20260904174117 | 78 | 49 | 3.0 | 5.0 | 0.00 | 1.83 | 0.57 | 83 | 1014.9 |
| 20260904174103 | 78 | 90 | 3.0 | 5.0 | 0.00 | 1.83 | 0.57 | 82 | 1014.9 |
| 20260904174003 | 78 | 259 | 3.0 | 5.0 | 0.00 | 1.83 | 0.57 | 82 | 1015.0 |
| 20260904173803 | 78 | 336 | 2.0 | 4.0 | 0.00 | 1.83 | 0.57 | 83 | 1014.9 |
| 20260904173717 | 78 | 275 | 1.0 | 4.0 | 0.00 | 1.83 | 0.57 | 83 | 1014.8 |
| 20260904173703 | 78 | 277 | 1.0 | 4.0 | 0.00 | 1.83 | 0.57 | 83 | 1014.8 |
| 20260904173603 | 78 | 274 | 2.0 | 4.0 | 0.00 | 1.83 | 0.57 | 83 | 1015.0 |
| 20260904173518 | 78 | 218 | 3.0 | 5.0 | 0.00 | 1.83 | 0.57 | 83 | 1014.8 |
| 20260904173403 | 77 | 247 | 3.0 | 5.0 | 0.00 | 1.83 | 0.57 | 84 | 1015.1 |
| 20260904173203 | 77 | 168 | 3.0 | 8.0 | 0.00 | 1.83 | 0.57 | 84 | 1015.1 |
| 20260904173116 | 77 | 156 | 4.0 | 8.0 | 0.00 | 1.83 | 0.57 | 84 | 1014.8 |
| 20260904173103 | 77 | 157 | 4.0 | 8.0 | 0.00 | 1.83 | 0.57 | 84 | 1014.8 |
| 20260904172803 | 77 | 105 | 5.0 | 8.0 | 0.00 | 1.83 | 0.57 | 86 | 1014.9 |
| 20260904172703 | 77 | 105 | 5.0 | 7.0 | 0.00 | 1.83 | 0.57 | 84 | 1014.8 |
| 20260904172617 | 77 | 97 | 4.0 | 7.0 | 0.00 | 1.83 | 0.57 | 84 | 1015.0 |
| 20260904172603 | 77 | 94 | 4.0 | 7.0 | 0.00 | 1.83 | 0.57 | 85 | 1015.0 |
| 20260904172503 | 77 | 89 | 4.0 | 7.0 | 0.00 | 1.83 | 0.57 | 88 | 1015.0 |
| 20260904172305 | 76 | 40 | 4.0 | 7.0 | 0.00 | 1.83 | 0.57 | 87 | 1014.9 |
| 20260904172203 | 76 | 76 | 4.0 | 7.0 | 0.00 | 1.83 | 0.57 | 89 | 1015.0 |
| 20260904172103 | 76 | 74 | 4.0 | 5.0 | 0.00 | 1.83 | 0.57 | 89 | 1015.1 |
| 20260904172017 | 76 | 45 | 3.0 | 6.0 | 0.00 | 1.83 | 0.57 | 87 | 1015.1 |
| 20260904172003 | 76 | 40 | 3.0 | 6.0 | 0.00 | 1.83 | 0.57 | 87 | 1015.1 |
| 20260904171903 | 76 | 63 | 3.0 | 6.0 | 0.00 | 1.83 | 0.57 | 89 | 1015.2 |
| 20260904171703 | 75 | 68 | 3.0 | 6.0 | 0.00 | 1.83 | 0.57 | 91 | 1015.1 |
| 20260904171603 | 75 | 7 | 2.0 | 5.0 | 0.00 | 1.83 | 0.57 | 89 | 1015.2 |
| 20260904171503 | 75 | 357 | 2.0 | 5.0 | 0.00 | 1.83 | 0.57 | 88 | 1015.3 |
| 20260904171403 | 75 | 357 | 3.0 | 5.0 | 0.00 | 1.83 | 0.57 | 88 | 1015.4 |
| 20260904171303 | 75 | 3 | 4.0 | 5.0 | 0.00 | 1.83 | 0.57 | 89 | 1015.3 |
| 20260904171203 | 75 | 11 | 3.0 | 5.0 | 0.00 | 1.83 | 0.57 | 87 | 1015.7 |
| 20260904171103 | 75 | 54 | 3.0 | 8.0 | 0.00 | 1.83 | 0.57 | 88 | 1015.8 |
| 20260904171003 | 75 | 5 | 2.0 | 8.0 | 0.00 | 1.83 | 0.57 | 89 | 1015.6 |
| 20260904170903 | 75 | 294 | 3.0 | 8.0 | 0.00 | 1.83 | 0.57 | 90 | 1015.7 |
| 20260904170803 | 75 | 340 | 4.0 | 8.0 | 0.00 | 1.83 | 0.57 | 89 | 1015.4 |
| 20260904170717 | 75 | 351 | 3.0 | 8.0 | 0.00 | 1.83 | 0.57 | 88 | 1015.3 |
| 20260904170703 | 75 | 352 | 3.0 | 8.0 | 0.00 | 1.83 | 0.57 | 88 | 1015.3 |
| 20260904170603 | 75 | 355 | 2.0 | 5.0 | 0.00 | 1.83 | 0.57 | 90 | 1015.6 |
| 20260904170403 | 75 | 8 | 3.0 | 5.0 | 0.00 | 1.83 | 0.57 | 90 | 1015.6 |
| 20260904170303 | 75 | 303 | 3.0 | 4.0 | 0.00 | 1.83 | 0.57 | 89 | 1015.3 |
| 20260904170203 | 75 | 295 | 2.0 | 4.0 | 0.00 | 1.83 | 0.57 | 90 | 1015.6 |
| 20260904170003 | 75 | 39 | 2.0 | 4.0 | 0.00 | 1.83 | 0.57 | 88 | 1015.3 |
| 20260904165903 | 75 | 59 | 1.0 | 4.0 | 0.00 | 1.83 | 0.57 | 90 | 1015.6 |
| 20260904165803 | 75 | 46 | 1.0 | 4.0 | 0.00 | 1.83 | 0.57 | 91 | 1015.3 |
| 20260904165717 | 75 | 35 | 2.0 | 4.0 | 0.00 | 1.83 | 0.57 | 90 | 1015.6 |
| 20260904165703 | 75 | 6 | 2.0 | 4.0 | 0.00 | 1.83 | 0.57 | 90 | 1015.6 |
| 20260904165617 | 75 | 12 | 3.0 | 4.0 | 0.00 | 1.83 | 0.57 | 90 | 1015.6 |
| 20260904165416 | 75 | 297 | 1.0 | 3.0 | 0.00 | 1.83 | 0.57 | 91 | 1015.8 |
| 20260904165305 | 75 | 271 | 0.0 | 5.0 | 0.00 | 1.83 | 0.57 | 91 | 1015.8 |
| 20260904165217 | 75 | 276 | 1.0 | 5.0 | 0.00 | 1.83 | 0.57 | 91 | 1015.8 |
| 20260904165103 | 75 | 285 | 2.0 | 5.0 | 0.00 | 1.83 | 0.57 | 90 | 1015.9 |
| 20260904164903 | 75 | 296 | 3.0 | 6.0 | 0.00 | 1.83 | 0.57 | 90 | 1015.9 |
| 20260904164803 | 75 | 286 | 2.0 | 9.0 | 0.00 | 1.83 | 0.57 | 89 | 1015.8 |
| 20260904164703 | 75 | 325 | 3.0 | 9.0 | 0.00 | 1.83 | 0.57 | 90 | 1015.7 |
| 20260904164603 | 75 | 326 | 4.0 | 9.0 | 0.00 | 1.83 | 0.57 | 90 | 1015.6 |
| 20260904164503 | 75 | 288 | 3.0 | 9.0 | 0.00 | 1.83 | 0.57 | 90 | 1015.8 |
| 20260904164416 | 75 | 315 | 2.0 | 9.0 | 0.00 | 1.83 | 0.57 | 89 | 1015.8 |
| 20260904164403 | 75 | 341 | 2.0 | 9.0 | 0.00 | 1.83 | 0.57 | 89 | 1015.8 |
| 20260904164303 | 75 | 294 | 2.0 | 8.0 | 0.00 | 1.83 | 0.57 | 91 | 1015.8 |
| 20260904164003 | 75 | 349 | 5.0 | 9.0 | 0.03 | 1.83 | 0.57 | 90 | 1015.8 |
| 20260904163903 | 75 | 348 | 5.0 | 9.0 | 0.05 | 1.83 | 0.57 | 88 | 1015.8 |
| 20260904163803 | 75 | 333 | 2.0 | 8.0 | 0.05 | 1.83 | 0.57 | 91 | 1015.7 |
| 20260904163717 | 75 | 15 | 3.0 | 8.0 | 0.05 | 1.83 | 0.57 | 89 | 1015.8 |
| 20260904163703 | 75 | 33 | 3.0 | 6.0 | 0.05 | 1.83 | 0.57 | 89 | 1015.8 |
| 20260904163603 | 75 | 344 | 2.0 | 6.0 | 0.05 | 1.83 | 0.57 | 91 | 1015.8 |
| 20260904163403 | 75 | 23 | 2.0 | 5.0 | 0.05 | 1.83 | 0.57 | 90 | 1015.7 |
| 20260904163317 | 75 | 37 | 2.0 | 5.0 | 0.05 | 1.83 | 0.57 | 91 | 1015.8 |
| 20260904163303 | 75 | 8 | 1.0 | 4.0 | 0.05 | 1.83 | 0.57 | 91 | 1015.8 |
| 20260904163217 | 75 | 305 | 1.0 | 5.0 | 0.05 | 1.83 | 0.57 | 92 | 1015.7 |
| 20260904163203 | 75 | 301 | 1.0 | 5.0 | 0.05 | 1.83 | 0.57 | 92 | 1015.7 |
| 20260904162903 | 75 | 311 | 3.0 | 10.0 | 0.05 | 1.83 | 0.57 | 92 | 1015.8 |
| 20260904162803 | 75 | 293 | 5.0 | 10.0 | 0.05 | 1.83 | 0.57 | 92 | 1016.0 |
| 20260904162703 | 75 | 320 | 5.0 | 10.0 | 0.05 | 1.83 | 0.57 | 91 | 1015.9 |
| 20260904162603 | 75 | 296 | 4.0 | 6.0 | 0.05 | 1.83 | 0.57 | 91 | 1015.9 |
| 20260904162503 | 75 | 327 | 3.0 | 6.0 | 0.05 | 1.83 | 0.57 | 91 | 1016.0 |
| 20260904162403 | 75 | 278 | 2.0 | 6.0 | 0.05 | 1.83 | 0.57 | 91 | 1016.0 |
| 20260904162306 | 75 | 309 | 2.0 | 6.0 | 0.05 | 1.83 | 0.57 | 92 | 1016.0 |
| 20260904162203 | 75 | 22 | 3.0 | 6.0 | 0.05 | 1.83 | 0.57 | 91 | 1015.9 |
| 20260904162118 | 75 | 46 | 3.0 | 6.0 | 0.05 | 1.83 | 0.57 | 92 | 1015.8 |
| 20260904162103 | 75 | 50 | 3.0 | 6.0 | 0.05 | 1.83 | 0.57 | 92 | 1015.8 |
| 20260904162017 | 75 | 119 | 1.0 | 4.0 | 0.05 | 1.83 | 0.57 | 94 | 1016.0 |
| 20260904162003 | 74 | 107 | 1.0 | 5.0 | 0.05 | 1.83 | 0.57 | 93 | 1016.0 |
| 20260904161716 | 74 | 349 | 2.0 | 6.0 | 0.05 | 1.83 | 0.57 | 93 | 1015.8 |
| 20260904161703 | 74 | 358 | 2.0 | 6.0 | 0.05 | 1.83 | 0.57 | 93 | 1015.8 |
| 20260904161603 | 74 | 340 | 3.0 | 8.0 | 0.05 | 1.83 | 0.57 | 94 | 1016.0 |
| 20260904161403 | 74 | 328 | 4.0 | 8.0 | 0.05 | 1.83 | 0.57 | 94 | 1016.2 |
| 20260904161303 | 74 | 325 | 5.0 | 8.0 | 0.05 | 1.83 | 0.57 | 92 | 1016.2 |
| 20260904161203 | 74 | 282 | 5.0 | 8.0 | 0.05 | 1.83 | 0.57 | 92 | 1016.1 |
| 20260904161103 | 74 | 293 | 5.0 | 8.0 | 0.05 | 1.83 | 0.57 | 93 | 1016.3 |
| 20260904161003 | 74 | 302 | 3.0 | 7.0 | 0.05 | 1.83 | 0.57 | 94 | 1016.4 |
| 20260904160903 | 74 | 28 | 2.0 | 5.0 | 0.05 | 1.83 | 0.57 | 95 | 1016.2 |
| 20260904160803 | 74 | 282 | 2.0 | 5.0 | 0.05 | 1.83 | 0.57 | 94 | 1016.3 |
| 20260904160703 | 74 | 255 | 1.0 | 8.0 | 0.05 | 1.83 | 0.57 | 94 | 1016.1 |
| 20260904160603 | 74 | 292 | 1.0 | 8.0 | 0.05 | 1.83 | 0.57 | 94 | 1016.1 |
| 20260904160503 | 73 | 200 | 1.0 | 8.0 | 0.05 | 1.83 | 0.57 | 94 | 1016.0 |
| 20260904160418 | 73 | 256 | 1.0 | 8.0 | 0.05 | 1.83 | 0.57 | 94 | 1016.2 |
| 20260904160403 | 73 | 294 | 2.0 | 8.0 | 0.05 | 1.83 | 0.57 | 94 | 1016.2 |
| 20260904160317 | 73 | 353 | 2.0 | 8.0 | 0.05 | 1.83 | 0.57 | 94 | 1016.2 |
| 20260904160303 | 73 | 350 | 2.0 | 8.0 | 0.05 | 1.83 | 0.57 | 94 | 1016.2 |
| 20260904160003 | 73 | 225 | 2.0 | 6.0 | 0.05 | 1.83 | 0.57 | 94 | 1016.4 |
| 20260904155903 | 73 | 222 | 4.0 | 6.0 | 0.05 | 1.83 | 0.57 | 94 | 1016.5 |
| 20260904155803 | 73 | 217 | 4.0 | 6.0 | 0.05 | 1.83 | 0.57 | 94 | 1016.3 |
| 20260904155703 | 73 | 183 | 2.0 | 5.0 | 0.05 | 1.83 | 0.57 | 95 | 1016.3 |
| 20260904155603 | 73 | 112 | 2.0 | 5.0 | 0.05 | 1.83 | 0.57 | 94 | 1016.0 |
| 20260904155503 | 73 | 46 | 3.0 | 5.0 | 0.05 | 1.83 | 0.57 | 94 | 1016.3 |
| 20260904155403 | 73 | 48 | 3.0 | 7.0 | 0.05 | 1.83 | 0.57 | 94 | 1016.4 |
| 20260904155306 | 73 | 38 | 2.0 | 8.0 | 0.05 | 1.83 | 0.57 | 94 | 1016.2 |
| 20260904155203 | 73 | 323 | 2.0 | 8.0 | 0.05 | 1.83 | 0.57 | 94 | 1016.4 |
| 20260904155103 | 73 | 231 | 4.0 | 8.0 | 0.05 | 1.83 | 0.57 | 93 | 1016.8 |
| 20260904154903 | 73 | 291 | 5.0 | 8.0 | 0.05 | 1.83 | 0.57 | 93 | 1016.5 |
| 20260904154803 | 73 | 296 | 3.0 | 8.0 | 0.05 | 1.83 | 0.57 | 92 | 1016.8 |
| 20260904154703 | 74 | 326 | 2.0 | 6.0 | 0.05 | 1.83 | 0.57 | 93 | 1016.8 |
| 20260904154603 | 74 | 328 | 3.0 | 6.0 | 0.05 | 1.83 | 0.57 | 93 | 1016.6 |
| 20260904154503 | 74 | 294 | 3.0 | 6.0 | 0.05 | 1.83 | 0.57 | 93 | 1016.8 |
| 20260904154403 | 74 | 279 | 3.0 | 5.0 | 0.05 | 1.83 | 0.57 | 92 | 1016.7 |
| 20260904154317 | 74 | 271 | 3.0 | 8.0 | 0.05 | 1.83 | 0.57 | 92 | 1016.6 |
| 20260904154303 | 74 | 269 | 2.0 | 8.0 | 0.05 | 1.83 | 0.57 | 92 | 1016.6 |
| 20260904154203 | 74 | 302 | 2.0 | 9.0 | 0.05 | 1.82 | 0.57 | 91 | 1016.7 |
| 20260904154003 | 74 | 263 | 4.0 | 12.0 | 0.02 | 1.80 | 0.54 | 90 | 1016.5 |
| 20260904153903 | 74 | 295 | 5.0 | 13.0 | 0.00 | 1.78 | 0.52 | 89 | 1016.7 |
| 20260904153803 | 75 | 304 | 5.0 | 14.0 | 0.00 | 1.77 | 0.52 | 88 | 1016.6 |
| 20260904153703 | 75 | 316 | 6.0 | 14.0 | 0.00 | 1.77 | 0.52 | 88 | 1016.8 |
| 20260904153603 | 75 | 288 | 8.0 | 14.0 | 0.00 | 1.77 | 0.52 | 87 | 1016.7 |
| 20260904153503 | 75 | 279 | 8.0 | 14.0 | 0.00 | 1.77 | 0.52 | 87 | 1016.7 |
| 20260904153403 | 76 | 291 | 7.0 | 13.0 | 0.00 | 1.77 | 0.52 | 87 | 1016.7 |
| 20260904153303 | 76 | 295 | 8.0 | 13.0 | 0.00 | 1.77 | 0.52 | 86 | 1016.5 |
| 20260904153203 | 76 | 311 | 8.0 | 13.0 | 0.00 | 1.77 | 0.52 | 85 | 1016.2 |
| 20260904153103 | 76 | 302 | 4.0 | 8.0 | 0.00 | 1.77 | 0.52 | 85 | 1016.4 |
| 20260904153003 | 76 | 293 | 4.0 | 8.0 | 0.00 | 1.77 | 0.52 | 85 | 1016.4 |
| 20260904152903 | 76 | 318 | 4.0 | 7.0 | 0.00 | 1.77 | 0.52 | 86 | 1016.3 |
| 20260904152803 | 76 | 296 | 3.0 | 7.0 | 0.00 | 1.77 | 0.52 | 86 | 1016.2 |
| 20260904152718 | 76 | 1 | 3.0 | 7.0 | 0.00 | 1.77 | 0.52 | 86 | 1016.3 |
| 20260904152703 | 76 | 353 | 3.0 | 7.0 | 0.00 | 1.77 | 0.52 | 87 | 1016.3 |
| 20260904152603 | 76 | 311 | 5.0 | 7.0 | 0.00 | 1.77 | 0.52 | 86 | 1016.0 |
| 20260904152403 | 76 | 266 | 4.0 | 6.0 | 0.00 | 1.77 | 0.52 | 85 | 1016.2 |
| 20260904152306 | 76 | 287 | 3.0 | 6.0 | 0.00 | 1.77 | 0.52 | 85 | 1016.2 |
| 20260904152203 | 76 | 273 | 2.0 | 6.0 | 0.00 | 1.77 | 0.52 | 85 | 1016.0 |
| 20260904152103 | 76 | 306 | 2.0 | 6.0 | 0.00 | 1.77 | 0.52 | 86 | 1016.0 |
| 20260904152003 | 76 | 306 | 3.0 | 6.0 | 0.00 | 1.77 | 0.52 | 85 | 1016.1 |
| 20260904151917 | 76 | 262 | 4.0 | 6.0 | 0.00 | 1.77 | 0.52 | 85 | 1015.8 |
| 20260904151903 | 76 | 260 | 4.0 | 6.0 | 0.00 | 1.77 | 0.52 | 85 | 1015.8 |
| 20260904151603 | 76 | 308 | 4.0 | 6.0 | 0.00 | 1.77 | 0.52 | 85 | 1016.0 |
| 20260904151503 | 76 | 273 | 4.0 | 6.0 | 0.00 | 1.77 | 0.52 | 85 | 1015.7 |
| 20260904151403 | 76 | 292 | 3.0 | 6.0 | 0.00 | 1.77 | 0.52 | 85 | 1015.8 |
| 20260904151303 | 76 | 285 | 3.0 | 6.0 | 0.00 | 1.77 | 0.52 | 85 | 1015.7 |
| 20260904151203 | 76 | 304 | 3.0 | 5.0 | 0.00 | 1.77 | 0.52 | 84 | 1015.8 |
| 20260904151103 | 76 | 312 | 4.0 | 5.0 | 0.00 | 1.77 | 0.52 | 84 | 1015.8 |
| 20260904151003 | 76 | 315 | 2.0 | 5.0 | 0.00 | 1.77 | 0.52 | 85 | 1015.9 |
| 20260904150903 | 76 | 276 | 2.0 | 5.0 | 0.00 | 1.77 | 0.52 | 84 | 1015.8 |
| 20260904150803 | 76 | 24 | 2.0 | 7.0 | 0.00 | 1.77 | 0.52 | 83 | 1015.7 |
| 20260904150718 | 76 | 9 | 2.0 | 7.0 | 0.00 | 1.77 | 0.52 | 83 | 1015.9 |
| 20260904150703 | 76 | 19 | 1.0 | 7.0 | 0.00 | 1.77 | 0.52 | 83 | 1015.9 |
| 20260904150603 | 76 | 30 | 2.0 | 7.0 | 0.00 | 1.77 | 0.52 | 83 | 1015.6 |
| 20260904150517 | 76 | 326 | 4.0 | 7.0 | 0.00 | 1.77 | 0.52 | 83 | 1015.8 |
| 20260904150418 | 76 | 305 | 4.0 | 7.0 | 0.00 | 1.77 | 0.52 | 83 | 1015.8 |
| 20260904150403 | 76 | 298 | 4.0 | 7.0 | 0.00 | 1.77 | 0.52 | 83 | 1015.8 |
| 20260904150003 | 75 | 44 | 3.0 | 7.0 | 0.00 | 1.77 | 0.52 | 86 | 1016.0 |
| 20260904145903 | 75 | 359 | 4.0 | 7.0 | 0.00 | 1.77 | 0.52 | 85 | 1015.9 |
| 20260904145803 | 75 | 353 | 4.0 | 7.0 | 0.00 | 1.78 | 0.52 | 84 | 1015.9 |
| 20260904145703 | 75 | 316 | 2.0 | 10.0 | 0.00 | 1.78 | 0.52 | 86 | 1015.8 |
| 20260904145603 | 75 | 303 | 2.0 | 10.0 | 0.00 | 1.78 | 0.52 | 87 | 1015.8 |
| 20260904145503 | 75 | 325 | 3.0 | 10.0 | 0.00 | 1.78 | 0.52 | 86 | 1015.8 |
| 20260904145403 | 75 | 321 | 6.0 | 10.0 | 0.00 | 1.78 | 0.52 | 85 | 1015.8 |
| 20260904145305 | 76 | 305 | 6.0 | 10.0 | 0.00 | 1.78 | 0.52 | 84 | 1015.6 |
| 20260904145203 | 76 | 294 | 3.0 | 9.0 | 0.00 | 1.78 | 0.52 | 84 | 1015.7 |
| 20260904145103 | 76 | 350 | 3.0 | 6.0 | 0.00 | 1.78 | 0.52 | 87 | 1015.7 |
| 20260904145003 | 76 | 44 | 4.0 | 6.0 | 0.00 | 1.78 | 0.52 | 86 | 1015.8 |
| 20260904144903 | 76 | 133 | 4.0 | 6.0 | 0.00 | 1.78 | 0.52 | 85 | 1015.8 |
| 20260904144803 | 75 | 106 | 2.0 | 5.0 | 0.00 | 1.78 | 0.52 | 87 | 1015.8 |
| 20260904144703 | 75 | 36 | 1.0 | 4.0 | 0.00 | 1.78 | 0.52 | 87 | 1015.8 |
| 20260904144603 | 74 | 347 | 2.0 | 4.0 | 0.00 | 1.78 | 0.52 | 89 | 1016.0 |
| 20260904144503 | 74 | 2 | 3.0 | 4.0 | 0.00 | 1.78 | 0.52 | 88 | 1015.7 |
| 20260904144403 | 74 | 51 | 2.0 | 4.0 | 0.00 | 1.78 | 0.52 | 90 | 1015.7 |
| 20260904144316 | 74 | 3 | 1.0 | 4.0 | 0.00 | 1.78 | 0.52 | 90 | 1015.7 |
| 20260904144303 | 73 | 3 | 1.0 | 4.0 | 0.00 | 1.78 | 0.52 | 90 | 1015.7 |
| 20260904144203 | 73 | 13 | 2.0 | 5.0 | 0.00 | 1.78 | 0.52 | 90 | 1015.8 |
| 20260904144003 | 73 | 8 | 3.0 | 5.0 | 0.00 | 1.81 | 0.52 | 89 | 1015.7 |
| 20260904143903 | 73 | 12 | 3.0 | 5.0 | 0.00 | 1.82 | 0.52 | 90 | 1015.7 |
| 20260904143803 | 73 | 347 | 3.0 | 5.0 | 0.00 | 1.84 | 0.52 | 90 | 1015.4 |
| 20260904143703 | 73 | 339 | 2.0 | 4.0 | 0.00 | 1.85 | 0.52 | 90 | 1015.8 |
| 20260904143603 | 73 | 348 | 2.0 | 4.0 | 0.00 | 1.85 | 0.52 | 90 | 1015.8 |
| 20260904143517 | 73 | 324 | 3.0 | 4.0 | 0.00 | 1.85 | 0.52 | 90 | 1015.6 |
| 20260904143503 | 73 | 322 | 3.0 | 4.0 | 0.00 | 1.85 | 0.52 | 90 | 1015.6 |
| 20260904143403 | 73 | 339 | 3.0 | 4.0 | 0.00 | 1.85 | 0.52 | 90 | 1015.4 |
| 20260904143203 | 73 | 245 | 1.0 | 4.0 | 0.00 | 1.85 | 0.52 | 91 | 1015.7 |
| 20260904143103 | 73 | 278 | 1.0 | 4.0 | 0.00 | 1.86 | 0.52 | 90 | 1015.4 |
| 20260904143018 | 73 | 8 | 2.0 | 4.0 | 0.00 | 1.86 | 0.52 | 90 | 1015.4 |
| 20260904143003 | 73 | 22 | 2.0 | 4.0 | 0.00 | 1.86 | 0.52 | 90 | 1015.4 |
| 20260904142903 | 73 | 34 | 2.0 | 4.0 | 0.00 | 1.86 | 0.52 | 90 | 1015.6 |
| 20260904142603 | 73 | 56 | 2.0 | 5.0 | 0.00 | 1.86 | 0.52 | 90 | 1015.4 |
| 20260904142503 | 73 | 100 | 3.0 | 5.0 | 0.00 | 1.86 | 0.52 | 90 | 1015.4 |
| 20260904142403 | 73 | 79 | 4.0 | 5.0 | 0.00 | 1.86 | 0.52 | 90 | 1015.3 |
| 20260904142318 | 73 | 92 | 3.0 | 5.0 | 0.00 | 1.86 | 0.52 | 90 | 1015.6 |
| 20260904142306 | 73 | 94 | 3.0 | 5.0 | 0.00 | 1.86 | 0.52 | 90 | 1015.6 |
| 20260904142203 | 73 | 125 | 2.0 | 3.0 | 0.00 | 1.86 | 0.52 | 90 | 1015.4 |
| 20260904142004 | 73 | 164 | 2.0 | 5.0 | 0.00 | 1.86 | 0.52 | 90 | 1015.4 |
| 20260904141903 | 73 | 69 | 2.0 | 5.0 | 0.00 | 1.86 | 0.52 | 90 | 1015.3 |
| 20260904141803 | 73 | 90 | 3.0 | 5.0 | 0.00 | 1.86 | 0.52 | 90 | 1015.6 |
| 20260904141718 | 73 | 85 | 4.0 | 5.0 | 0.00 | 1.86 | 0.52 | 91 | 1015.6 |
| 20260904141703 | 73 | 96 | 3.0 | 5.0 | 0.00 | 1.86 | 0.52 | 90 | 1015.6 |
| 20260904141603 | 73 | 87 | 3.0 | 5.0 | 0.00 | 1.86 | 0.52 | 90 | 1015.6 |
| 20260904141403 | 73 | 16 | 2.0 | 4.0 | 0.00 | 1.86 | 0.52 | 91 | 1015.4 |
| 20260904141303 | 73 | 24 | 2.0 | 4.0 | 0.00 | 1.86 | 0.52 | 90 | 1015.4 |
| 20260904141203 | 73 | 93 | 2.0 | 3.0 | 0.00 | 1.86 | 0.52 | 91 | 1015.1 |
| 20260904141117 | 73 | 65 | 1.0 | 3.0 | 0.00 | 1.86 | 0.52 | 91 | 1015.3 |
| 20260904141103 | 73 | 45 | 1.0 | 3.0 | 0.00 | 1.86 | 0.52 | 91 | 1015.3 |
| 20260904141003 | 73 | 73 | 1.0 | 3.0 | 0.00 | 1.86 | 0.52 | 90 | 1015.3 |
| 20260904140817 | 73 | 46 | 1.0 | 5.0 | 0.00 | 1.86 | 0.52 | 90 | 1015.3 |
| 20260904140803 | 73 | 52 | 1.0 | 5.0 | 0.00 | 1.86 | 0.52 | 90 | 1015.3 |
| 20260904140718 | 73 | 62 | 2.0 | 5.0 | 0.00 | 1.86 | 0.52 | 90 | 1015.3 |
| 20260904140703 | 73 | 68 | 2.0 | 5.0 | 0.00 | 1.86 | 0.52 | 90 | 1015.3 |
| 20260904140403 | 73 | 88 | 3.0 | 5.0 | 0.00 | 1.86 | 0.52 | 90 | 1015.4 |
| 20260904140318 | 73 | 83 | 3.0 | 5.0 | 0.00 | 1.86 | 0.52 | 90 | 1015.2 |
| 20260904140303 | 73 | 80 | 3.0 | 5.0 | 0.00 | 1.86 | 0.52 | 89 | 1015.2 |
| 20260904140203 | 73 | 71 | 2.0 | 5.0 | 0.00 | 1.86 | 0.52 | 90 | 1015.3 |
| 20260904140003 | 73 | 56 | 4.0 | 5.0 | 0.00 | 1.86 | 0.52 | 90 | 1015.1 |
| 20260904135903 | 73 | 78 | 3.0 | 5.0 | 0.00 | 1.86 | 0.52 | 90 | 1015.0 |
| 20260904135803 | 73 | 75 | 2.0 | 5.0 | 0.00 | 1.86 | 0.52 | 91 | 1015.3 |
| 20260904135703 | 72 | 117 | 2.0 | 5.0 | 0.00 | 1.86 | 0.52 | 92 | 1015.1 |
| 20260904135618 | 72 | 116 | 3.0 | 5.0 | 0.00 | 1.86 | 0.52 | 92 | 1015.2 |
| 20260904135603 | 72 | 118 | 3.0 | 5.0 | 0.00 | 1.86 | 0.52 | 91 | 1015.2 |
| 20260904135503 | 72 | 128 | 3.0 | 5.0 | 0.00 | 1.86 | 0.52 | 91 | 1015.2 |
| 20260904135306 | 72 | 126 | 2.0 | 4.0 | 0.00 | 1.87 | 0.52 | 91 | 1015.4 |
| 20260904135203 | 72 | 104 | 1.0 | 4.0 | 0.00 | 1.89 | 0.52 | 92 | 1015.4 |
| 20260904135103 | 72 | 97 | 1.0 | 5.0 | 0.00 | 1.89 | 0.52 | 91 | 1015.6 |
| 20260904135003 | 72 | 88 | 1.0 | 5.0 | 0.00 | 1.89 | 0.52 | 91 | 1015.4 |
| 20260904134903 | 72 | 99 | 2.0 | 5.0 | 0.00 | 1.90 | 0.52 | 91 | 1015.6 |
| 20260904134803 | 72 | 75 | 4.0 | 5.0 | 0.00 | 1.91 | 0.52 | 91 | 1015.8 |
| 20260904134703 | 72 | 95 | 3.0 | 5.0 | 0.00 | 1.92 | 0.52 | 90 | 1015.3 |
| 20260904134603 | 72 | 93 | 2.0 | 5.0 | 0.00 | 1.92 | 0.52 | 91 | 1015.6 |
| 20260904134503 | 72 | 91 | 2.0 | 5.0 | 0.00 | 1.93 | 0.52 | 91 | 1015.4 |
| 20260904134403 | 72 | 88 | 3.0 | 5.0 | 0.00 | 1.93 | 0.52 | 91 | 1015.4 |
| 20260904134303 | 72 | 90 | 4.0 | 5.0 | 0.00 | 1.94 | 0.52 | 91 | 1015.3 |
| 20260904134203 | 72 | 75 | 3.0 | 5.0 | 0.00 | 1.95 | 0.52 | 91 | 1015.7 |
| 20260904134103 | 72 | 66 | 3.0 | 5.0 | 0.00 | 1.98 | 0.52 | 91 | 1015.6 |
| 20260904133903 | 72 | 13 | 1.0 | 5.0 | 0.00 | 2.05 | 0.52 | 92 | 1015.4 |
| 20260904133803 | 72 | 57 | 2.0 | 5.0 | 0.00 | 2.07 | 0.52 | 92 | 1015.6 |
| 20260904133703 | 72 | 83 | 3.0 | 5.0 | 0.00 | 2.09 | 0.52 | 92 | 1015.6 |
| 20260904133603 | 72 | 41 | 3.0 | 5.0 | 0.00 | 2.09 | 0.52 | 91 | 1015.6 |
| 20260904133503 | 72 | 54 | 3.0 | 5.0 | 0.00 | 2.12 | 0.52 | 90 | 1015.3 |
| 20260904133403 | 72 | 125 | 1.0 | 5.0 | 0.00 | 2.13 | 0.52 | 91 | 1015.6 |
| 20260904133318 | 72 | 145 | 1.0 | 5.0 | 0.00 | 2.14 | 0.52 | 91 | 1015.6 |
| 20260904133303 | 72 | 138 | 1.0 | 5.0 | 0.00 | 2.14 | 0.52 | 90 | 1015.6 |
| 20260904133216 | 72 | 114 | 2.0 | 5.0 | 0.00 | 2.15 | 0.52 | 90 | 1015.4 |
| 20260904133203 | 73 | 107 | 3.0 | 5.0 | 0.00 | 2.15 | 0.52 | 90 | 1015.4 |
| 20260904132903 | 72 | 348 | 1.0 | 3.0 | 0.00 | 2.18 | 0.52 | 91 | 1015.6 |
| 20260904132803 | 72 | 82 | 2.0 | 3.0 | 0.00 | 2.19 | 0.52 | 91 | 1015.7 |
| 20260904132717 | 72 | 122 | 1.0 | 4.0 | 0.00 | 2.19 | 0.52 | 91 | 1015.4 |
| 20260904132703 | 72 | 120 | 1.0 | 4.0 | 0.00 | 2.19 | 0.52 | 91 | 1015.4 |
| 20260904132603 | 72 | 81 | 0.0 | 4.0 | 0.00 | 2.19 | 0.52 | 93 | 1015.7 |
| 20260904132516 | 71 | 102 | 1.0 | 4.0 | 0.00 | 2.20 | 0.52 | 92 | 1015.3 |
| 20260904132403 | 71 | 89 | 2.0 | 4.0 | 0.00 | 2.20 | 0.52 | 92 | 1015.7 |
| 20260904132203 | 71 | 122 | 2.0 | 5.0 | 0.00 | 2.21 | 0.52 | 94 | 1015.4 |
| 20260904132103 | 71 | 118 | 2.0 | 5.0 | 0.00 | 2.21 | 0.52 | 93 | 1015.3 |
| 20260904132003 | 71 | 140 | 2.0 | 5.0 | 0.00 | 2.22 | 0.52 | 93 | 1015.4 |
| 20260904131903 | 71 | 127 | 3.0 | 5.0 | 0.00 | 2.22 | 0.52 | 93 | 1015.4 |
| 20260904131803 | 71 | 119 | 3.0 | 5.0 | 0.00 | 2.22 | 0.52 | 93 | 1015.6 |
| 20260904131703 | 71 | 7 | 3.0 | 6.0 | 0.00 | 2.23 | 0.52 | 92 | 1015.4 |
| 20260904131603 | 71 | 64 | 3.0 | 7.0 | 0.00 | 2.23 | 0.52 | 92 | 1015.3 |
| 20260904131503 | 71 | 142 | 3.0 | 7.0 | 0.00 | 2.23 | 0.52 | 92 | 1015.4 |
| 20260904131403 | 71 | 159 | 3.0 | 7.0 | 0.00 | 2.23 | 0.52 | 92 | 1015.8 |
| 20260904131303 | 72 | 117 | 4.0 | 7.0 | 0.00 | 2.23 | 0.52 | 91 | 1015.4 |
| 20260904131203 | 72 | 104 | 4.0 | 7.0 | 0.00 | 2.24 | 0.52 | 91 | 1015.6 |
| 20260904131103 | 72 | 95 | 4.0 | 6.0 | 0.00 | 2.24 | 0.52 | 91 | 1015.6 |
| 20260904131003 | 72 | 67 | 3.0 | 6.0 | 0.00 | 2.24 | 0.52 | 92 | 1015.6 |
| 20260904130903 | 72 | 93 | 3.0 | 6.0 | 0.00 | 2.24 | 0.52 | 92 | 1015.6 |
| 20260904130703 | 71 | 84 | 3.0 | 6.0 | 0.00 | 2.26 | 0.52 | 94 | 1015.6 |
| 20260904130603 | 71 | 65 | 2.0 | 6.0 | 0.00 | 2.27 | 0.52 | 94 | 1015.7 |
| 20260904130503 | 71 | 75 | 2.0 | 6.0 | 0.00 | 2.28 | 0.52 | 94 | 1015.4 |
| 20260904130417 | 71 | 39 | 3.0 | 6.0 | 0.00 | 2.29 | 0.52 | 94 | 1015.7 |
| 20260904130403 | 70 | 39 | 3.0 | 6.0 | 0.00 | 2.29 | 0.52 | 93 | 1015.7 |
| 20260904130303 | 70 | 54 | 4.0 | 6.0 | 0.00 | 2.33 | 0.52 | 92 | 1015.8 |
| 20260904130220 | 70 | 65 | 4.0 | 6.0 | 0.00 | 2.35 | 0.52 | 92 | 1015.8 |
| 20260904125918 | 70 | 69 | 4.0 | 5.0 | 0.00 | 2.35 | 0.52 | 95 | 1015.6 |
| 20260904125903 | 70 | 66 | 4.0 | 5.0 | 0.00 | 2.35 | 0.52 | 95 | 1015.6 |
| 20260904125803 | 70 | 48 | 3.0 | 5.0 | 0.00 | 2.35 | 0.52 | 95 | 1015.3 |
| 20260904125717 | 70 | 61 | 2.0 | 4.0 | 0.00 | 2.35 | 0.52 | 95 | 1015.7 |
| 20260904125603 | 70 | 72 | 2.0 | 3.0 | 0.00 | 2.36 | 0.52 | 95 | 1015.8 |
| 20260904125403 | 70 | 89 | 3.0 | 5.0 | 0.00 | 2.36 | 0.52 | 94 | 1015.4 |
| 20260904125305 | 70 | 94 | 3.0 | 5.0 | 0.00 | 2.36 | 0.52 | 94 | 1015.7 |
| 20260904125203 | 70 | 108 | 3.0 | 5.0 | 0.00 | 2.36 | 0.52 | 94 | 1015.7 |
| 20260904125103 | 70 | 114 | 3.0 | 5.0 | 0.00 | 2.36 | 0.52 | 94 | 1015.4 |
| 20260904125003 | 71 | 129 | 2.0 | 5.0 | 0.00 | 2.36 | 0.52 | 93 | 1015.6 |
| 20260904124803 | 71 | 114 | 1.0 | 4.0 | 0.00 | 2.36 | 0.52 | 93 | 1015.8 |
| 20260904124703 | 71 | 94 | 0.0 | 4.0 | 0.00 | 2.36 | 0.52 | 93 | 1015.8 |
| 20260904124603 | 71 | 40 | 0.0 | 2.0 | 0.00 | 2.36 | 0.52 | 94 | 1015.8 |
| 20260904124503 | 70 | 60 | 0.0 | 2.0 | 0.00 | 2.36 | 0.52 | 95 | 1015.9 |
| 20260904124403 | 70 | 51 | 1.0 | 2.0 | 0.00 | 2.36 | 0.52 | 96 | 1016.0 |
| 20260904124303 | 70 | 41 | 0.0 | 3.0 | 0.00 | 2.36 | 0.52 | 97 | 1015.8 |
| 20260904124218 | 70 | 44 | 0.0 | 3.0 | 0.00 | 2.36 | 0.52 | 97 | 1015.6 |
| 20260904124203 | 70 | 43 | 0.0 | 3.0 | 0.00 | 2.36 | 0.52 | 100 | 1015.6 |
| 20260904124103 | 70 | 58 | 0.0 | 3.0 | 0.00 | 2.36 | 0.52 | 100 | 1015.9 |
| 20260904123903 | 70 | 75 | 1.0 | 3.0 | 0.00 | 2.36 | 0.52 | 100 | 1015.7 |
| 20260904123803 | 69 | 64 | 1.0 | 2.0 | 0.00 | 2.36 | 0.52 | 100 | 1015.7 |